GFSNE_850_thetae_000.txt.gz
Theta_e
311 312 312 314 315 315 316 319 322 323 323 324 324 324 324 324 321 322 322 320 318 320 321 321 320 318 317 317 318 318 320 320 317 316 314 313 309 305
309 313 313 314 316 316 317 318 319 321 322 321 322 323 324 324 323 324 323 322 321 319 320 321 321 320 318 318 318 317 319 318 317 315 313 313 307 301
310 309 309 310 312 313 314 314 315 316 319 318 319 319 321 321 323 323 323 323 321 322 320 320 321 320 320 318 318 317 318 318 316 314 312 311 304 296
305 306 308 309 309 310 310 311 312 313 315 317 317 318 318 318 321 321 321 321 322 322 321 321 321 321 320 319 319 317 317 317 315 311 310 305 299 297
304 306 306 305 306 304 305 308 309 310 311 314 316 317 318 317 318 318 320 321 321 319 317 321 320 320 320 319 318 318 317 316 312 309 307 303 294 297
302 301 301 299 297 298 304 305 307 310 311 313 315 315 316 316 318 318 319 319 318 320 319 320 319 319 320 316 317 316 316 313 309 309 305 300 293 293
297 297 296 295 294 300 295 296 300 305 306 308 310 312 316 315 315 316 316 316 316 315 315 316 316 318 316 314 315 313 312 310 307 305 297 293 292 291
295 294 293 292 294 292 291 293 296 302 304 306 306 308 310 312 312 314 314 315 313 314 313 315 314 312 311 310 312 312 310 305 305 297 294 293 293 292
292 292 290 292 297 293 291 291 293 297 300 302 302 304 307 308 311 312 313 313 314 314 313 312 312 307 308 308 307 305 304 303 301 293 292 292 292 292
289 288 288 295 294 292 291 292 293 297 299 300 301 303 303 305 306 307 310 311 312 313 312 309 310 308 307 306 303 301 300 300 299 293 292 292 291 291
289 289 292 293 293 293 293 293 295 298 298 300 301 302 302 304 306 305 307 308 309 310 310 310 307 303 301 300 300 300 299 298 292 292 292 291 291 290
290 291 291 292 292 292 292 294 296 297 298 298 300 302 303 304 305 306 306 306 307 307 310 305 300 298 296 297 297 297 295 292 292 292 292 292 291 290
290 290 289 289 290 291 293 295 295 294 295 295 297 300 300 302 305 305 305 304 306 306 308 304 299 298 299 296 295 295 289 290 291 291 290 290 290 290
289 288 289 289 290 292 293 293 292 293 294 293 294 296 298 300 300 301 302 302 302 302 302 300 299 299 299 290 291 289 287 287 287 288 288 287 286 288
288 288 288 289 290 290 290 291 291 292 292 291 292 293 295 296 296 296 297 296 297 298 298 296 299 298 298 292 287 286 286 286 286 285 285 285 285 285
287 286 287 287 287 287 288 289 289 290 290 291 291 292 293 294 293 293 293 294 295 292 292 295 295 292 287 286 287 286 286 286 285 285 285 285 286 286
286 285 285 284 284 285 287 288 288 289 289 289 290 291 291 292 292 292 291 293 294 292 292 292 288 285 286 286 286 285 285 285 286 286 286 286 286 286
284 284 283 283 284 285 286 287 287 288 289 289 290 290 290 290 290 290 290 291 292 291 291 286 285 286 286 285 286 286 287 286 286 286 286 286 288 288
282 283 282 282 283 284 284 286 286 287 288 288 289 288 288 288 288 289 289 289 290 289 285 286 285 285 285 285 285 286 286 286 286 286 287 288 288 289
282 282 282 282 282 283 284 285 286 287 287 288 288 287 287 287 287 288 289 289 289 286 285 285 284 284 284 284 286 286 286 286 287 288 288 288 289 289
282 281 281 281 282 283 283 285 286 286 287 287 287 286 286 286 287 288 288 289 286 285 284 284 284 283 283 285 286 288 288 288 289 289 288 287 288 288
281 281 281 281 282 282 284 285 285 285 287 287 286 286 286 286 287 288 288 285 285 284 283 283 283 284 285 287 288 288 289 288 288 288 288 289 287 287
280 280 280 281 281 282 285 285 285 285 286 286 286 286 287 287 288 287 285 285 284 283 283 283 284 286 288 289 288 288 288 289 290 289 288 288 288 288

GFSNE_850_thetae_003.txt.gz
Theta_e
305 306 308 309 309 308 309 311 314 317 316 316 317 318 318 319 320 320 321 321 322 322 321 321 319 319 320 320 320 320 318 318 318 319 321 319 319 317
305 304 304 304 305 306 307 308 309 311 313 313 314 314 315 315 316 316 317 318 320 321 322 321 320 320 319 321 320 320 319 317 318 319 320 319 319 316
300 300 302 304 304 303 304 304 304 305 309 309 310 311 312 314 316 316 316 317 317 318 320 320 321 321 320 320 321 321 320 318 317 318 320 320 317 316
296 298 300 299 297 296 296 298 298 301 306 307 307 309 311 312 313 314 315 317 318 317 317 318 319 321 321 321 320 320 320 319 318 318 318 319 315 315
293 298 299 294 294 293 293 300 300 293 293 300 305 307 308 309 311 313 314 316 315 317 317 317 317 319 318 319 317 320 320 319 319 318 318 314 310 310
294 296 293 292 292 290 294 300 297 292 294 298 299 303 304 305 308 310 311 315 313 313 314 314 315 316 317 315 315 318 319 319 319 319 319 317 313 310
293 291 290 290 291 291 295 294 295 294 296 295 297 300 301 302 304 305 307 309 311 312 312 312 313 316 315 314 314 315 317 317 317 318 317 312 307 309
289 289 288 288 288 291 290 291 294 295 294 295 295 297 298 300 301 302 303 305 307 311 312 312 311 312 312 313 313 314 314 316 315 314 312 307 306 306
287 288 287 288 288 290 291 292 293 293 293 294 296 297 299 299 300 300 301 303 305 306 307 309 310 310 311 313 313 313 312 312 311 304 305 304 303 301
288 288 289 289 289 290 290 291 291 290 290 294 297 298 297 298 299 301 301 302 303 305 306 305 308 309 310 311 307 308 307 305 302 303 302 300 299 297
288 289 289 289 289 290 290 290 289 290 292 295 295 295 295 296 298 300 302 303 303 303 303 305 307 306 306 307 302 302 301 300 300 300 299 297 294 293
289 289 288 288 288 289 289 289 292 293 294 293 293 292 292 294 296 298 298 298 300 299 302 303 305 302 298 298 298 297 298 298 299 297 295 293 293 293
288 287 287 287 288 288 289 289 290 290 291 291 290 291 291 292 293 295 295 295 296 297 299 301 302 299 298 294 295 294 296 296 295 293 293 293 292 292
287 287 287 287 286 287 287 287 288 289 289 289 289 289 290 292 291 292 293 294 294 295 297 297 299 298 297 292 291 291 292 293 292 292 292 293 293 292
286 287 286 285 285 284 284 286 286 287 288 288 289 289 289 289 291 291 291 291 291 293 294 295 294 296 296 296 291 291 291 290 290 291 291 290 291 291
287 285 284 283 283 283 283 283 285 285 286 287 287 288 288 289 289 290 289 289 289 290 291 292 293 294 294 294 294 293 292 286 286 287 287 288 288 286
285 283 282 282 282 281 282 282 283 284 285 286 287 287 287 288 288 288 288 289 288 289 290 290 291 288 286 287 286 286 285 285 285 285 285 284 284 284
283 282 281 282 281 281 281 282 283 284 285 286 286 287 287 287 287 287 287 288 288 288 289 288 285 285 285 284 285 285 285 285 286 284 284 284 285 286
282 281 281 281 280 280 280 281 282 284 284 285 286 286 286 286 286 286 287 287 288 288 286 284 285 284 285 284 284 285 286 286 286 285 286 286 287 287
282 281 281 280 280 280 280 281 282 283 284 284 285 286 286 286 286 286 286 287 287 286 285 284 283 284 285 285 285 285 286 286 286 286 286 286 287 287
281 280 280 280 280 280 280 281 282 283 283 284 285 285 285 285 285 286 286 287 286 285 284 283 283 283 285 286 286 286 286 287 287 287 288 287 287 287
279 279 280 279 279 280 280 282 283 283 284 284 285 285 285 285 286 286 287 285 285 284 283 282 283 284 286 287 288 288 287 287 287 287 287 287 287 287
279 279 279 279 280 280 281 282 283 283 284 284 285 285 285 286 287 285 285 284 282 281 282 284 286 288 287 287 288 288 288 288 288 288 287 286 286 286

GFSNE_850_thetae_006.txt.gz
Theta_e
303 303 299 299 300 303 305 303 302 305 305 305 306 306 308 308 309 310 310 312 313 314 316 317 317 319 320 321 321 321 321 322 322 320 318 319 320 320
296 294 293 295 299 300 296 295 294 300 302 301 302 304 304 304 303 307 309 310 310 311 314 316 316 317 318 319 321 319 320 320 321 321 320 317 320 321
290 290 293 298 300 296 294 295 292 295 302 299 298 294 294 295 301 304 306 307 310 311 313 314 315 317 317 317 319 320 318 319 319 319 320 319 317 319
290 292 294 293 293 292 292 291 291 299 299 297 293 293 293 293 294 297 303 305 305 310 311 312 315 316 316 317 317 317 317 320 319 320 320 320 318 318
292 292 291 290 290 289 289 290 293 296 294 293 293 293 293 292 295 297 298 299 303 307 308 312 312 311 313 313 314 315 316 318 315 314 318 320 320 317
291 290 288 288 288 288 289 291 293 293 293 294 294 294 294 293 295 296 297 298 300 302 306 308 309 311 310 311 312 313 316 316 315 316 315 318 319 318
288 288 287 287 288 289 290 290 291 291 292 292 292 293 293 294 295 296 298 299 299 300 301 304 306 308 312 312 310 312 312 314 314 314 315 316 318 319
287 287 287 287 288 289 289 290 290 290 290 290 291 291 291 291 295 297 297 297 299 300 301 302 303 306 306 306 308 309 310 310 313 313 313 317 318 319
287 287 287 288 289 288 288 289 289 289 289 289 290 290 291 293 296 295 297 297 295 297 299 300 301 302 305 306 308 309 309 310 312 312 314 315 316 315
286 287 288 288 287 288 288 289 288 287 288 290 291 292 293 294 292 293 294 294 295 299 300 302 302 302 304 305 307 308 309 310 310 313 312 312 312 309
286 287 288 287 287 288 288 288 287 287 287 288 290 290 290 290 291 292 292 293 293 293 296 298 300 301 302 304 306 306 308 308 310 310 308 305 303 303
287 287 286 286 287 288 286 286 286 285 286 287 287 288 289 289 289 290 290 291 291 291 295 296 299 300 300 301 302 303 304 304 304 302 301 300 300 299
287 286 285 286 287 285 285 285 284 285 286 286 286 287 288 288 289 288 289 289 289 289 291 291 294 294 297 299 299 299 300 299 298 298 298 298 297 296
285 285 285 286 284 284 284 284 284 285 284 284 285 286 287 287 287 288 288 288 289 289 290 291 290 292 294 295 296 296 296 296 296 296 295 295 295 293
285 286 285 283 282 282 282 282 282 282 282 283 284 285 285 286 287 287 287 288 288 288 288 290 291 291 292 294 294 292 293 293 294 294 294 293 294 294
285 285 283 282 281 281 281 280 281 281 282 283 283 283 285 286 287 286 287 287 287 287 288 288 289 290 292 291 293 291 292 292 293 292 292 293 294 294
284 283 281 281 280 280 280 280 280 281 282 282 282 283 284 285 286 286 286 286 286 287 287 287 288 288 288 288 288 290 292 292 292 291 292 292 291 292
281 281 281 280 280 280 280 279 280 281 281 281 282 283 283 285 285 285 286 286 286 286 286 286 285 285 287 287 289 291 290 286 289 289 288 289 289 289
280 281 280 280 279 279 279 279 280 281 281 281 282 283 284 285 285 285 286 286 285 285 286 286 284 285 284 283 284 283 284 285 286 285 285 284 284 285
280 280 279 279 279 279 279 279 280 280 281 281 282 284 284 285 285 285 285 286 286 286 285 282 283 284 284 284 284 284 284 285 285 284 284 285 286 286
279 279 279 278 278 278 279 280 280 280 281 282 283 284 284 285 285 286 286 286 286 285 283 283 282 284 285 285 285 284 285 285 285 285 285 285 286 287
278 278 278 278 278 279 280 281 280 281 282 283 283 284 285 285 286 286 286 285 284 283 282 282 283 285 286 286 287 286 286 286 286 286 287 287 288 288
278 278 278 278 279 280 281 281 280 282 283 283 284 284 285 285 285 285 284 282 281 281 283 285 287 288 288 288 287 287 287 287 287 287 287 287 287 287

GFSNE_850_thetae_009.txt.gz
Theta_e
290 290 289 290 293 297 299 300 298 300 298 297 297 298 302 300 297 296 296 297 302 306 308 310 310 311 312 314 315 316 317 318 322 323 325 323 322 322
290 289 290 292 293 295 295 295 296 295 294 294 295 298 298 296 294 295 295 295 295 296 299 302 307 309 311 314 314 316 317 317 319 320 322 321 323 322
288 289 292 292 290 289 291 291 290 290 291 291 295 297 295 293 294 294 293 291 294 294 296 298 302 306 310 312 314 315 317 317 318 319 320 320 321 323
289 290 290 288 288 288 288 289 289 290 290 293 294 293 292 293 294 293 293 295 295 293 296 300 303 307 308 310 312 313 315 315 316 317 318 316 317 320
288 289 288 288 288 288 289 289 290 290 290 290 291 291 292 292 292 292 292 292 294 296 299 299 302 302 305 307 310 311 311 311 313 314 316 317 316 317
287 287 287 287 287 288 289 289 290 289 290 290 290 290 290 290 290 290 291 291 293 296 298 299 297 299 303 304 307 308 309 310 312 314 315 316 316 316
287 287 287 287 287 288 289 289 289 289 289 289 289 290 290 289 290 290 291 292 294 295 296 297 298 299 301 302 305 309 310 311 309 310 312 314 314 315
286 286 286 286 287 288 288 288 289 289 289 289 288 288 288 289 290 291 291 292 294 293 295 294 294 297 298 299 300 304 305 305 307 308 310 310 313 313
286 286 286 287 287 287 287 288 288 287 287 287 287 288 287 287 289 290 291 290 292 293 293 293 296 297 299 301 302 303 304 305 308 309 309 310 312 313
285 286 286 287 287 287 287 288 286 285 285 286 285 286 287 287 288 289 289 290 290 291 291 292 293 294 297 301 302 301 302 305 308 308 309 310 312 312
285 286 286 286 286 287 287 285 285 285 284 285 286 286 286 287 288 289 289 290 289 290 290 290 294 296 296 298 300 300 302 304 307 308 310 310 312 313
286 286 285 285 286 286 286 284 284 283 284 284 284 283 285 285 287 287 288 288 289 289 289 290 290 290 293 296 298 299 303 305 306 308 308 310 310 310
285 285 284 285 286 285 284 283 283 284 283 282 282 283 284 284 285 286 286 287 288 287 288 288 288 288 289 291 293 298 303 304 305 304 303 304 307 306
285 284 285 286 285 283 282 282 283 283 281 281 282 283 283 283 284 285 286 286 286 286 287 287 286 287 288 290 291 297 299 301 300 300 299 300 300 300
284 284 284 283 283 282 281 281 281 280 280 281 282 282 282 282 283 284 285 286 286 286 286 286 286 287 287 289 291 294 296 297 298 298 296 296 297 297
284 282 281 281 282 281 280 280 280 280 280 280 281 281 281 282 282 284 285 285 286 286 286 286 286 286 287 288 289 292 293 294 295 295 295 295 294 294
282 281 280 281 280 279 279 280 280 280 280 280 280 281 281 282 283 284 285 285 286 285 285 285 285 284 286 287 288 290 291 293 294 294 294 294 293 292
280 279 279 280 279 279 279 279 279 280 280 280 280 281 281 282 283 284 285 285 285 285 285 285 286 286 285 285 287 290 292 292 292 293 293 293 292 293
279 279 279 279 279 278 278 278 279 280 279 280 280 281 282 283 284 285 285 285 285 284 285 285 286 283 287 284 287 289 290 291 292 291 292 292 291 291
278 278 278 278 278 278 278 278 279 279 279 280 280 282 283 283 284 285 285 285 285 285 282 282 283 284 285 285 283 283 285 289 290 290 289 289 289 288
278 278 278 278 278 278 279 279 279 279 279 280 281 283 283 284 285 285 285 285 285 283 282 282 283 283 283 284 284 283 283 284 285 284 284 284 284 284
278 278 277 277 278 279 279 279 279 279 280 281 282 283 284 284 284 284 284 283 282 281 281 283 284 285 285 284 284 284 284 284 284 285 285 286 286 286
277 277 277 278 278 279 280 279 279 281 282 283 284 284 284 283 282 281 281 281 283 285 286 286 287 288 287 287 286 285 285 285 285 285 286 287 287 288

GFSNE_850_thetae_012.txt.gz
Theta_e
291 293 293 293 294 295 295 294 294 295 296 294 294 292 292 293 294 299 298 296 295 297 297 296 295 296 298 301 306 309 311 312 313 314 315 317 318 317
291 291 292 292 293 292 291 290 291 292 292 292 291 291 292 294 296 295 294 293 294 297 295 296 299 298 295 297 300 305 308 311 313 314 315 317 316 317
290 290 290 291 291 290 290 289 290 290 291 291 291 291 291 291 292 292 293 294 294 294 295 297 297 295 294 299 302 304 306 309 313 314 315 317 318 319
289 289 289 289 289 289 289 289 289 290 290 291 290 291 291 291 292 291 291 292 292 292 293 294 295 296 297 298 301 302 303 307 311 313 315 316 317 318
289 289 289 289 288 288 288 288 289 290 290 290 290 290 290 290 291 291 291 290 291 292 293 293 296 298 298 300 299 298 301 303 308 311 312 312 315 316
288 288 288 288 288 288 288 288 289 289 289 289 289 290 289 289 289 290 290 290 290 291 292 294 295 296 297 298 299 299 303 305 307 309 310 311 312 313
288 287 287 287 287 287 288 288 288 288 288 289 289 289 288 288 288 289 289 288 288 289 292 293 294 294 295 295 295 296 299 301 305 308 309 309 311 313
287 287 287 287 287 287 288 288 288 289 289 289 289 288 287 287 287 287 288 288 289 289 292 291 291 292 293 293 295 298 299 300 302 304 307 309 309 310
286 286 286 286 287 287 287 287 287 288 288 287 287 286 286 286 286 287 287 287 288 289 290 290 291 291 292 293 294 295 299 301 302 303 305 306 307 308
286 286 286 286 287 286 286 287 288 287 286 285 285 285 286 286 286 286 286 287 288 289 290 291 290 290 291 293 295 296 298 300 301 301 303 306 307 308
286 286 286 286 286 286 287 287 286 285 284 284 285 285 284 284 285 286 286 287 288 289 289 289 289 290 291 291 294 295 296 298 300 302 304 306 307 308
285 286 286 286 286 286 286 285 285 283 283 284 283 283 283 284 285 285 285 286 286 287 287 288 288 289 289 291 293 294 296 300 304 305 305 306 307 309
285 285 285 285 286 285 284 284 284 283 283 283 282 282 283 283 283 284 284 284 284 285 286 288 287 288 288 288 289 290 294 300 303 307 307 308 309 309
285 284 285 285 283 283 283 283 283 283 281 281 281 282 282 282 283 283 283 284 284 285 286 286 286 286 286 287 287 290 293 298 300 304 304 304 305 307
284 284 284 283 282 282 282 282 282 281 281 281 281 281 281 282 282 282 283 284 285 286 286 286 286 285 285 285 286 289 291 295 298 300 300 300 300 301
284 283 282 282 281 281 281 280 280 281 281 281 281 281 281 281 282 283 283 284 285 286 286 286 285 284 284 285 287 290 290 294 295 298 299 298 298 299
283 281 281 281 280 280 280 280 280 280 281 280 280 280 281 282 282 283 284 285 286 286 285 284 284 284 285 286 288 289 290 293 295 296 296 295 295 296
281 281 280 280 279 279 279 279 280 280 280 280 280 280 281 281 282 284 285 286 285 284 284 284 285 285 285 285 286 287 290 292 294 294 294 294 294 294
280 279 279 279 279 279 279 279 279 279 279 279 280 280 281 282 283 285 285 285 284 284 283 284 282 285 286 285 285 287 289 290 293 293 293 292 292 291
279 279 279 279 279 279 279 279 279 279 279 280 280 281 282 283 284 284 285 285 285 283 282 282 282 286 286 284 283 286 289 291 292 292 292 291 291 292
279 278 278 278 278 278 279 278 278 279 279 280 281 282 283 283 283 283 282 283 283 281 281 283 283 283 283 284 285 286 288 290 291 291 290 290 290 289
278 278 278 278 278 278 278 278 278 280 281 282 282 283 282 283 282 281 280 281 283 283 283 285 285 284 284 284 283 283 284 284 285 287 287 287 286 285
278 278 278 278 279 279 278 278 280 282 283 283 283 282 282 282 282 281 283 285 285 285 286 285 286 285 284 284 284 284 284 284 284 285 286 286 286 287

GFSNE_850_thetae_015.txt.gz
Theta_e
291 291 291 292 292 292 292 294 293 292 292 291 291 291 292 291 293 292 293 292 294 294 294 295 297 298 296 297 299 302 302 303 304 306 310 307 310 311
290 290 291 291 291 291 291 292 291 291 291 291 290 290 291 292 291 291 292 292 292 293 293 293 295 294 295 296 299 299 299 300 305 305 307 310 311 310
289 290 290 290 290 290 290 290 290 290 290 290 290 291 291 290 291 291 291 292 291 291 292 293 293 294 294 295 296 297 298 300 302 304 305 308 312 312
289 289 289 289 289 289 289 289 289 289 289 290 290 290 290 290 290 291 290 289 290 290 291 291 293 294 294 294 295 298 299 299 302 301 302 302 308 312
288 289 289 289 289 288 288 288 288 288 289 289 289 289 289 290 290 290 289 288 288 289 291 290 290 292 293 295 296 296 298 298 299 299 301 303 304 310
288 288 288 288 288 287 287 288 288 288 288 289 289 289 289 289 289 289 288 287 287 288 288 289 290 291 293 294 295 294 296 297 294 295 299 303 306 309
287 288 288 287 287 288 288 288 288 288 288 288 288 289 288 288 287 287 286 287 287 287 288 288 289 289 290 291 292 293 294 295 295 297 300 301 305 308
287 287 287 287 287 287 287 287 288 288 288 288 289 288 287 286 285 285 286 287 287 286 287 287 288 289 290 291 292 294 294 295 296 296 298 300 303 305
286 286 286 286 287 286 287 287 287 287 287 287 287 286 285 285 285 286 286 285 285 285 287 287 289 289 291 290 290 292 293 293 294 296 298 300 301 304
286 286 286 286 286 287 287 286 287 285 285 285 285 284 284 285 285 285 284 285 285 286 286 288 287 289 288 289 288 290 291 293 295 297 299 301 303 303
285 285 286 286 286 287 287 286 284 284 284 284 285 284 284 284 284 284 284 285 285 286 285 285 286 287 287 288 288 290 293 294 294 296 297 299 302 302
285 285 285 286 286 286 285 284 284 283 284 284 283 282 282 282 283 283 284 284 284 284 284 284 285 286 287 288 289 289 289 290 293 297 300 301 301 302
285 285 285 285 286 285 284 283 283 284 283 282 282 282 282 282 282 282 282 282 283 283 283 284 285 285 286 287 287 287 288 290 293 300 305 305 305 305
285 284 284 285 284 283 283 283 283 283 281 281 281 282 282 282 282 282 282 283 283 283 284 285 285 286 287 287 286 286 288 291 295 300 304 305 306 306
284 284 284 283 282 282 281 282 282 281 281 281 282 281 281 281 281 282 282 283 284 284 286 286 287 287 285 284 284 285 288 291 295 298 301 302 302 303
284 284 282 282 281 281 281 280 280 281 281 281 280 280 280 281 281 282 283 284 285 286 286 286 285 284 284 285 285 287 290 291 294 297 299 298 299 301
284 282 281 280 280 280 280 280 280 280 280 280 280 280 280 281 282 283 284 285 286 285 284 284 284 284 285 286 288 288 289 291 293 295 298 297 298 299
282 280 280 280 280 279 279 279 280 280 279 279 279 280 280 281 282 283 284 285 285 284 283 283 283 285 286 285 286 287 289 291 292 294 295 296 295 296
280 280 280 279 279 279 279 279 279 279 279 279 280 280 281 282 283 283 284 285 285 284 282 282 284 286 286 285 286 287 289 291 293 294 294 294 294 294
279 279 279 279 279 279 279 279 279 279 279 280 280 281 282 282 283 283 282 282 283 282 282 283 284 284 284 284 284 286 289 292 293 292 292 292 292 293
279 279 278 278 279 279 279 278 278 279 279 281 282 282 282 282 283 283 282 283 284 284 284 284 283 284 285 286 285 287 288 291 292 292 291 291 291 291
278 278 278 278 278 279 278 278 279 281 282 282 282 282 282 282 283 283 283 283 284 284 285 284 284 284 284 286 285 285 286 288 290 290 291 291 291 289
278 278 278 278 279 279 279 280 281 282 282 282 282 282 283 283 283 283 284 284 284 285 285 285 285 284 284 284 284 283 284 285 285 285 287 288 289 290

GFSNE_850_thetae_018.txt.gz
Theta_e
290 289 289 289 290 290 290 290 291 291 291 290 290 289 290 289 289 291 291 290 291 291 292 293 294 294 294 295 296 295 295 297 297 300 302 302 304 309
289 288 288 289 289 289 290 290 290 290 289 289 289 289 288 289 290 289 289 290 290 291 291 291 291 292 292 293 294 293 294 296 297 298 299 301 303 306
288 287 288 288 289 289 289 289 289 289 289 288 288 288 289 288 288 289 289 289 289 290 290 290 290 290 291 292 293 294 295 295 296 297 299 300 302 305
286 286 287 288 288 288 289 288 288 288 287 287 288 288 288 288 288 288 289 289 289 288 288 288 288 289 291 291 291 291 292 294 295 297 298 299 301 303
286 286 286 287 288 288 288 287 287 288 288 288 288 288 288 288 288 288 288 287 287 286 286 287 288 288 289 289 291 292 292 294 295 295 296 298 299 299
286 285 286 287 287 287 287 288 288 288 288 287 288 288 287 288 288 287 286 285 285 285 285 286 287 287 288 289 289 290 291 293 293 294 295 296 297 298
285 286 286 286 287 287 288 288 288 287 288 288 288 287 286 286 286 285 284 284 284 285 286 285 285 285 286 287 288 289 291 292 293 294 295 296 296 298
285 286 286 286 286 287 286 287 287 288 287 287 286 285 284 285 285 285 284 285 285 285 284 284 285 285 286 287 289 290 292 292 292 292 294 295 295 297
285 285 285 285 285 285 286 287 287 286 286 285 284 284 284 285 284 285 285 285 284 284 284 284 285 285 286 285 287 288 289 290 290 291 293 294 295 295
285 285 285 285 285 286 287 287 286 285 284 284 284 284 285 284 284 284 284 283 283 283 284 284 285 284 284 284 286 286 288 289 290 292 292 294 295 297
285 285 285 285 285 286 286 286 285 284 283 283 284 284 283 283 283 283 283 283 283 283 282 283 284 283 283 284 285 286 289 289 289 289 290 292 295 296
285 285 285 285 285 286 285 284 284 283 283 284 282 281 281 281 282 282 282 282 282 282 282 282 283 283 284 285 287 286 287 287 287 290 292 293 295 296
285 284 284 284 285 285 284 283 283 284 283 282 281 281 281 281 281 281 281 281 281 282 283 283 283 284 284 285 285 286 286 287 290 292 295 297 298 297
284 283 283 285 284 283 283 282 283 282 281 280 280 281 280 280 280 281 282 283 283 283 284 285 284 284 285 285 285 286 287 290 291 293 297 304 304 302
283 283 284 283 282 281 281 281 281 280 280 280 281 280 280 280 281 282 283 284 285 285 285 285 285 285 285 284 285 286 287 291 292 295 299 303 305 304
283 284 282 281 280 280 279 279 279 280 280 280 280 279 280 280 281 282 283 284 284 285 283 283 283 284 284 285 286 288 288 289 293 295 296 298 299 302
283 282 280 279 279 279 279 279 279 279 279 279 279 279 280 281 282 283 283 283 284 285 283 283 284 284 285 285 286 288 289 291 293 295 297 297 296 297
281 279 279 279 279 279 279 279 279 279 279 279 280 280 280 282 282 283 283 282 282 283 283 283 284 286 286 285 286 288 290 292 294 295 295 296 297 297
279 279 279 278 278 278 279 279 279 279 279 280 280 281 282 282 282 282 283 283 283 283 284 283 283 284 284 284 286 288 291 292 294 294 294 294 294 294
278 278 278 278 278 278 278 278 279 279 280 281 282 282 282 282 282 282 283 283 283 284 284 284 285 284 284 284 285 287 291 293 294 294 294 294 294 294
278 278 278 278 278 278 278 278 279 280 281 282 282 282 282 282 282 283 283 283 284 284 284 284 284 285 286 286 286 287 289 292 293 293 293 293 293 293
277 277 278 278 279 279 279 279 280 281 282 283 283 283 283 283 283 284 284 284 285 285 285 284 284 286 288 287 287 288 289 290 291 292 292 292 292 291
277 277 278 279 280 279 279 280 281 281 282 283 283 284 284 284 285 285 284 285 285 285 285 284 284 284 286 286 287 287 288 289 290 291 290 291 291 292

GFSNE_850_thetae_021.txt.gz
Theta_e
289 288 288 287 287 287 288 288 289 289 289 289 288 288 288 287 287 288 288 288 289 290 290 291 292 292 293 292 293 293 294 295 295 296 296 297 298 299
288 288 287 286 286 286 288 288 288 288 289 288 288 287 287 287 287 288 287 288 288 289 289 290 291 292 291 292 291 292 292 293 294 294 296 297 298 300
287 287 286 286 285 286 287 287 288 288 287 287 287 287 287 287 286 287 287 287 288 288 289 290 289 289 289 289 289 290 292 292 293 294 294 296 297 298
287 287 286 285 286 286 287 287 287 287 287 287 287 287 287 287 287 287 287 287 286 286 287 287 287 287 287 288 289 290 291 291 291 293 293 293 295 297
287 286 285 285 286 286 286 287 287 287 288 288 287 286 287 287 287 287 285 285 285 285 285 285 285 286 287 288 288 288 289 290 291 291 292 293 294 296
286 286 285 285 285 286 286 287 287 287 286 286 287 287 287 286 285 284 284 284 285 284 284 284 285 286 285 285 286 287 288 288 289 290 291 293 294 295
286 285 285 285 285 286 286 286 286 286 287 288 288 287 285 284 283 283 284 285 284 284 284 285 284 283 283 284 285 286 287 288 290 290 292 292 293 294
286 285 285 285 285 285 285 286 287 287 286 287 286 285 284 283 283 284 284 284 284 283 283 283 283 283 283 283 284 286 288 287 288 290 291 292 292 293
286 285 285 285 285 285 285 286 286 286 286 285 284 284 283 283 285 284 283 283 283 283 283 283 283 283 283 283 285 285 286 287 288 289 290 290 291 292
285 285 285 285 284 285 285 285 286 285 284 283 283 283 284 284 283 283 283 283 282 282 282 282 282 282 282 282 284 284 285 286 286 288 289 290 291 291
285 285 285 284 284 285 285 286 284 283 282 283 283 283 282 282 282 282 282 282 282 281 281 281 281 282 282 283 284 285 286 287 288 288 289 289 290 291
284 284 284 284 284 285 285 284 282 282 283 283 282 281 281 281 281 281 281 280 281 281 283 281 282 282 283 283 285 284 285 285 286 287 287 288 290 292
284 284 283 283 284 284 283 282 282 283 282 281 280 280 280 280 280 281 281 281 280 281 284 283 283 283 283 283 284 284 285 286 287 289 290 291 291 291
284 283 283 284 283 282 281 281 282 282 280 279 280 280 280 280 281 281 282 283 283 283 285 284 283 283 283 284 284 285 287 289 290 291 292 293 294 295
283 283 282 282 280 280 280 281 280 279 279 280 280 279 280 281 281 282 282 283 282 283 284 284 283 283 282 283 284 285 287 290 291 292 294 297 300 303
283 282 281 280 279 279 279 279 279 279 280 279 279 280 280 281 281 281 282 283 283 283 284 283 283 283 284 284 285 286 288 289 292 294 295 298 301 303
282 281 279 278 278 279 279 279 279 279 279 279 280 280 281 281 281 282 282 283 283 283 284 284 284 285 286 285 286 287 290 292 293 294 295 296 297 299
280 278 278 278 278 278 278 279 279 279 279 280 281 281 281 281 281 282 282 283 283 283 284 284 284 285 286 286 287 288 291 293 294 294 294 294 295 295
278 278 278 278 278 278 278 278 278 279 280 281 281 281 282 282 282 282 283 283 283 284 284 284 285 284 285 284 287 289 292 293 293 293 293 293 293 294
278 278 277 278 278 278 278 278 279 280 281 281 282 283 283 283 283 283 284 283 284 285 285 284 285 285 285 285 286 289 292 293 293 293 293 293 293 295
277 278 278 278 279 279 279 279 279 280 281 282 283 284 284 283 283 284 284 284 285 285 284 284 285 286 287 288 288 290 291 292 293 293 293 293 293 293
278 278 278 279 280 279 279 280 280 281 282 283 284 285 285 284 284 285 285 285 285 285 285 284 286 287 288 288 289 290 291 292 292 292 293 292 292 292
278 278 278 280 280 280 280 281 281 282 283 284 285 285 285 285 286 286 286 286 285 285 285 284 285 287 288 288 289 289 291 291 291 291 291 291 292 292

GFSNE_850_thetae_024.txt.gz
Theta_e
289 288 288 287 287 286 285 285 287 287 287 287 287 287 287 287 287 287 287 287 288 289 289 289 290 291 291 292 293 293 294 294 294 294 294 295 296 297
288 287 287 287 286 285 285 286 287 287 287 287 287 287 287 287 287 287 287 287 287 288 288 289 290 290 291 291 291 291 292 292 291 292 293 294 294 296
287 287 287 286 285 285 285 286 286 286 286 286 286 287 287 286 286 287 287 286 286 286 286 287 287 288 289 289 289 289 289 290 291 292 293 294 295 296
287 287 286 286 285 285 285 285 286 286 286 286 287 286 286 286 287 287 286 284 285 284 285 286 287 287 287 287 287 288 289 289 290 290 291 292 293 294
287 286 286 285 285 285 285 285 286 286 286 286 285 286 287 287 287 286 284 283 283 283 284 284 285 285 286 287 287 288 289 288 288 288 289 290 291 293
286 286 286 285 285 285 286 286 286 285 285 286 286 287 286 287 284 284 283 283 283 283 284 284 284 285 285 286 286 285 286 286 287 288 288 289 290 290
286 286 286 285 285 286 286 286 285 286 286 287 286 286 285 284 283 283 283 283 284 283 283 283 283 283 283 283 283 284 284 285 286 288 289 290 290 291
286 286 285 284 284 285 285 285 286 286 285 286 286 285 283 283 283 283 283 284 283 282 282 282 282 282 282 282 283 284 285 286 287 288 289 289 289 290
285 284 284 284 284 283 284 285 285 285 285 284 283 282 283 283 284 283 282 282 282 282 282 282 282 282 282 282 283 284 284 285 286 287 287 288 288 289
284 283 284 284 283 284 284 285 285 283 283 282 282 283 283 283 282 282 282 282 282 281 281 281 281 281 282 282 283 284 284 285 286 286 287 288 288 289
284 284 284 283 283 285 286 284 283 282 281 282 283 282 281 282 281 282 281 280 280 280 282 281 282 281 282 282 283 284 285 285 286 287 287 288 288 289
284 284 284 283 284 285 284 283 282 281 283 282 281 281 281 281 281 281 280 280 280 280 282 281 281 282 282 283 283 283 283 284 285 285 286 286 288 289
284 284 283 283 284 283 282 281 281 283 282 281 280 280 280 281 281 281 281 280 280 281 283 282 282 283 283 283 283 283 284 285 286 288 290 290 289 289
284 283 283 283 282 281 281 281 282 281 280 279 280 280 280 281 281 282 282 282 282 282 283 283 283 283 283 283 282 285 285 287 288 291 290 291 291 289
283 283 282 281 280 280 280 280 280 280 279 280 279 280 281 281 282 282 282 282 283 283 283 283 283 283 282 283 283 285 286 289 291 291 293 293 294 293
282 282 281 280 279 279 280 280 280 279 279 279 280 281 281 281 282 282 282 283 282 284 284 284 284 284 284 286 285 286 289 286 292 293 293 295 298 300
282 280 279 279 279 280 280 280 279 279 279 280 281 281 282 282 283 283 283 283 283 283 284 285 285 285 286 287 286 288 289 292 293 293 293 293 297 298
280 279 278 278 278 279 279 279 279 279 280 281 282 282 282 282 282 283 283 283 283 284 284 284 285 286 288 288 288 288 292 292 292 292 292 292 294 298
278 278 278 278 278 279 279 279 279 280 281 281 282 282 282 283 283 283 284 284 284 285 285 285 285 286 286 285 289 290 292 293 293 293 292 292 291 291
278 278 278 278 279 279 279 280 280 281 282 282 283 284 284 283 284 284 284 284 284 285 285 286 286 286 287 287 287 290 292 293 293 293 293 292 292 292
278 278 278 279 280 280 280 280 281 282 282 283 284 285 285 285 285 285 285 285 285 285 285 285 286 287 289 290 290 291 292 293 293 294 293 293 292 292
278 278 279 280 281 281 281 281 282 283 284 284 285 286 286 285 286 286 286 286 286 285 285 285 287 288 290 290 290 290 291 292 292 293 293 292 292 292
278 278 280 281 281 281 282 282 283 284 284 285 286 286 286 286 286 286 287 287 286 286 285 284 286 288 289 289 290 289 289 290 291 292 292 292 292 292

GFSNE_850_thetae_027.txt.gz
Theta_e
289 288 287 287 287 286 286 285 285 285 285 286 286 286 286 286 286 286 286 286 287 288 289 289 289 290 290 291 291 292 293 294 294 295 295 296 296 297
288 287 287 287 286 286 285 285 285 285 285 285 286 285 286 286 285 286 286 287 287 287 287 288 288 288 288 288 289 290 291 292 292 293 294 294 294 295
287 287 287 286 286 286 285 285 285 285 285 285 285 285 285 285 286 286 286 286 286 286 286 286 286 286 287 288 289 289 290 290 291 291 292 292 293 293
287 287 286 286 286 285 285 285 285 285 285 285 285 285 285 286 286 286 286 287 284 284 284 284 285 286 287 287 287 288 288 289 289 289 289 290 291 292
286 286 286 286 286 285 285 285 285 286 286 285 285 285 286 286 285 285 284 283 283 283 284 284 284 285 286 286 287 287 287 288 288 288 288 289 290 291
286 286 286 285 285 285 285 285 286 285 285 285 285 286 285 285 284 283 282 282 283 283 283 284 283 284 284 284 285 285 285 286 286 287 287 288 288 289
286 285 285 284 284 285 285 285 284 285 285 285 285 285 283 283 282 282 282 283 283 283 282 282 282 282 282 282 283 283 284 284 285 286 287 287 288 288
284 284 283 283 284 284 284 284 285 285 285 286 284 283 282 282 282 283 283 282 282 282 282 281 282 281 282 282 283 283 284 285 286 286 286 287 288 288
284 283 283 284 284 283 283 284 286 284 284 283 282 282 282 283 283 282 282 282 282 282 281 281 281 281 282 282 283 283 284 284 285 286 286 287 287 288
284 284 284 284 283 284 285 286 283 283 282 282 282 283 283 283 282 282 282 282 281 281 281 281 281 282 282 283 284 284 284 284 285 286 287 287 288 288
284 285 284 283 283 285 285 283 282 282 282 283 282 282 281 281 281 282 281 280 280 280 281 280 281 281 282 283 283 283 283 284 285 286 286 287 288 288
285 284 283 283 284 284 283 282 282 281 283 282 281 281 282 282 281 281 281 280 280 280 281 280 281 281 282 282 283 283 284 285 285 285 286 286 287 287
284 283 282 283 284 283 282 281 281 283 282 281 281 281 281 282 282 282 282 281 280 280 282 281 281 282 281 282 283 284 285 287 288 288 290 290 289 288
283 282 282 283 282 281 281 281 282 281 281 280 280 280 281 282 283 283 283 283 282 282 284 283 282 282 283 283 283 286 287 289 289 291 290 291 291 290
283 283 282 281 280 280 281 280 280 280 279 279 280 281 282 283 283 283 283 283 284 284 284 284 284 284 284 283 284 287 287 290 291 291 291 292 292 292
282 282 280 280 280 280 281 281 280 279 279 279 280 282 283 283 283 283 283 284 283 285 285 284 285 285 286 287 287 287 290 287 291 292 292 292 293 297
281 280 280 280 279 280 281 280 280 280 280 281 281 282 283 283 284 284 284 284 283 284 285 285 286 287 289 289 289 289 290 291 292 292 292 292 294 294
280 279 279 279 279 279 280 280 281 281 281 282 282 283 283 283 284 285 285 284 284 284 284 285 286 288 290 291 289 289 291 292 292 292 292 291 292 298
279 279 279 278 279 280 280 279 280 281 282 282 283 283 283 284 284 285 285 285 285 285 285 286 286 287 286 287 290 291 290 292 293 292 292 291 291 295
279 278 278 278 279 280 280 280 281 282 283 283 284 285 285 284 285 285 285 285 285 285 285 286 287 287 287 288 287 291 291 291 292 294 292 292 291 295
279 279 278 279 280 280 281 282 282 283 283 284 285 285 285 285 285 286 286 286 286 286 285 285 287 288 290 291 290 291 291 292 292 292 292 292 291 291
278 278 279 280 281 281 282 282 283 284 285 285 286 286 286 286 286 286 286 286 287 286 285 285 287 289 290 289 288 289 291 291 292 292 291 291 290 290
278 278 280 281 281 282 283 283 284 285 286 286 286 286 286 286 286 286 286 287 287 286 285 285 286 288 288 288 288 288 291 291 291 291 291 291 291 291

GFSNE_850_thetae_030.txt.gz
Theta_e
289 288 288 287 287 287 286 286 285 284 284 285 285 285 285 285 285 285 285 285 287 287 288 288 289 289 290 290 290 290 291 292 292 292 293 294 296 297
288 288 288 287 286 286 286 285 285 285 285 285 285 285 285 285 284 285 285 285 285 286 287 288 288 288 288 288 288 288 289 290 291 291 292 293 295 296
288 287 287 286 286 286 285 285 285 285 285 285 285 284 284 284 284 285 285 285 285 284 285 286 287 286 286 287 288 288 289 289 290 290 291 292 293 294
287 287 286 286 286 285 285 285 285 285 285 285 284 284 284 284 285 285 285 284 283 283 284 284 285 286 286 286 287 287 288 288 288 289 290 290 290 292
286 286 286 285 285 284 284 284 285 285 285 284 284 284 284 285 285 284 283 282 282 282 283 283 284 285 285 286 286 286 287 287 287 288 288 289 290 290
286 285 284 284 283 284 285 285 285 284 284 284 284 285 285 284 283 282 282 282 282 283 282 283 283 283 283 284 284 284 285 285 286 286 287 287 288 288
285 284 284 283 283 285 285 285 284 284 285 286 284 283 283 282 281 282 282 283 283 282 282 282 282 282 282 282 282 283 283 284 285 286 286 287 287 288
284 284 284 284 284 284 284 284 285 286 285 284 283 282 282 282 282 282 283 282 282 282 282 282 282 282 282 282 282 282 283 285 286 286 287 287 287 288
284 284 284 284 283 283 283 284 285 284 283 283 282 282 282 283 283 282 282 281 281 282 281 281 281 281 282 282 283 283 283 284 285 286 286 286 287 287
284 284 284 283 283 284 284 285 284 283 282 281 282 282 283 283 282 282 282 282 281 281 281 280 281 281 281 282 283 284 283 284 285 285 286 286 286 287
284 284 283 283 283 284 285 284 283 282 282 283 282 282 282 282 282 282 282 280 280 281 282 280 281 280 281 283 283 283 284 285 285 286 286 287 287 288
284 284 283 283 283 284 283 283 282 281 283 282 282 282 282 283 283 282 281 280 280 280 284 281 281 281 281 282 283 285 286 288 287 285 285 287 287 287
284 283 283 282 284 283 282 281 281 283 282 281 282 282 282 283 283 283 282 281 280 280 284 281 281 282 281 282 284 287 287 288 289 290 291 290 290 289
283 283 282 283 282 281 281 280 282 281 281 281 281 281 282 283 284 284 284 284 283 283 284 284 283 283 283 283 283 288 289 290 290 291 291 291 291 291
283 282 282 281 280 280 280 280 281 281 280 280 280 282 283 284 284 284 285 285 285 285 285 285 284 284 285 284 285 289 288 289 291 291 291 291 291 291
282 282 280 280 280 280 281 281 281 281 279 280 281 282 283 284 285 284 284 285 284 286 286 286 286 286 287 290 289 289 289 287 290 291 291 292 292 292
281 280 280 280 280 280 281 281 281 281 281 282 282 283 284 284 285 285 285 285 284 285 286 287 288 288 290 291 290 290 289 289 290 292 291 291 293 293
280 279 279 279 279 280 281 281 281 282 282 282 283 283 284 284 284 285 285 285 285 285 285 286 287 289 290 291 290 290 289 290 290 292 291 291 294 296
279 279 279 279 279 280 281 281 281 282 283 283 283 284 284 284 284 285 285 285 286 285 285 286 287 287 285 286 291 290 290 289 290 290 291 291 293 297
279 279 279 279 280 281 281 281 282 283 284 284 284 284 285 284 284 285 285 285 285 285 286 285 287 287 287 287 287 291 291 290 290 290 291 291 293 297
278 279 279 280 281 281 281 282 283 284 284 284 285 285 285 284 285 285 286 286 286 285 285 285 286 288 289 289 289 290 291 291 290 290 290 292 291 295
278 279 279 281 281 282 282 283 284 285 285 285 285 285 285 285 285 285 286 286 286 285 285 285 286 288 288 288 288 290 291 291 291 290 290 290 289 290
279 279 280 281 282 283 283 284 285 285 285 285 285 286 286 286 286 286 286 287 286 286 285 285 287 287 288 288 289 290 291 291 291 291 291 290 290 291

GFSNE_850_thetae_033.txt.gz
Theta_e
291 290 289 288 288 287 286 286 286 286 286 286 286 285 285 285 285 285 285 286 286 287 287 288 288 289 289 290 291 291 291 291 291 291 292 293 294 295
289 289 288 287 287 286 286 286 286 285 285 285 285 285 285 285 285 285 285 285 285 286 286 287 287 287 288 289 289 289 289 290 290 290 291 292 293 294
289 288 287 287 286 286 285 285 285 285 285 284 285 285 285 285 285 285 285 285 285 285 285 285 286 286 287 287 288 288 289 289 289 290 291 291 292 293
288 287 286 286 285 284 284 284 284 284 285 284 284 284 285 285 285 285 285 284 283 283 283 284 285 286 286 286 287 287 288 288 289 289 289 290 290 291
287 286 285 284 284 284 284 284 284 285 284 284 284 285 285 285 285 283 283 282 282 283 283 283 284 285 285 286 286 287 287 287 287 287 288 288 289 290
286 285 284 284 284 284 284 285 285 285 284 285 285 285 284 284 283 282 282 283 283 283 283 283 284 284 284 284 285 285 285 285 286 286 287 287 287 288
285 284 284 284 284 285 285 285 285 285 285 285 285 284 283 283 282 282 282 283 283 283 283 283 283 283 283 283 283 283 283 284 285 286 286 287 287 288
284 284 284 284 284 284 284 284 285 285 286 285 284 283 282 282 282 283 283 282 282 283 283 283 283 283 283 283 283 283 284 285 285 286 286 287 287 288
284 284 284 284 283 283 283 284 285 285 284 283 283 282 282 282 283 283 282 282 282 282 282 282 283 282 283 283 284 283 283 284 285 286 286 287 287 287
284 284 284 283 283 283 284 285 284 283 283 282 282 283 283 283 282 282 282 282 282 283 282 281 282 282 283 284 285 286 285 284 285 286 286 287 287 288
284 284 283 283 283 284 285 284 283 282 282 283 282 282 282 282 282 282 282 281 281 281 284 281 282 281 283 285 286 286 285 285 287 287 286 287 287 287
284 284 283 283 283 284 284 283 282 281 283 283 282 282 283 283 283 283 282 280 280 280 284 281 281 281 282 284 286 289 290 290 289 288 287 288 288 288
284 283 283 283 284 283 283 282 281 283 282 281 282 283 283 283 284 284 284 282 281 281 285 281 281 283 281 282 287 290 290 290 290 290 291 291 291 291
283 283 282 283 282 281 281 280 281 281 281 282 282 282 283 284 284 285 285 285 284 284 285 284 283 283 284 283 283 290 290 291 289 290 290 291 291 291
283 282 282 281 280 280 280 281 281 282 281 281 281 282 283 284 285 285 285 285 286 286 286 286 285 285 285 284 284 289 289 289 290 289 290 290 290 291
282 282 281 280 280 280 281 282 282 281 280 280 281 283 283 284 285 284 285 285 285 286 286 286 285 286 286 289 289 290 289 288 289 289 290 291 291 292
282 280 280 280 280 281 281 282 282 282 282 282 283 283 284 284 285 285 284 285 285 285 286 286 286 287 289 289 290 290 289 289 289 289 290 291 293 294
280 279 279 279 279 280 281 281 282 283 283 283 283 283 283 283 283 284 284 285 285 285 286 285 286 288 289 290 290 289 290 289 289 290 291 291 293 292
279 279 279 279 279 281 281 281 282 283 283 284 283 284 283 283 283 284 285 285 285 285 285 285 285 286 285 287 289 290 289 290 289 290 291 291 292 293
279 279 279 279 280 281 282 282 283 284 284 284 284 284 284 283 284 285 285 285 285 284 285 285 285 286 286 287 287 291 291 290 289 289 290 292 293 294
279 279 279 280 281 282 282 283 284 285 284 284 285 285 285 284 285 285 285 286 285 285 285 285 286 287 288 289 289 290 291 291 290 290 290 290 292 293
279 279 280 281 282 282 283 284 285 285 285 285 285 285 286 285 285 285 286 286 286 286 285 286 287 287 288 288 289 290 291 291 291 290 290 290 290 289
279 280 281 282 283 283 284 285 285 286 286 286 285 286 286 286 286 286 286 287 286 286 285 286 287 287 287 288 288 289 290 290 290 291 291 291 291 291

GFSNE_850_thetae_036.txt.gz
Theta_e
292 291 290 289 289 288 288 288 288 289 289 289 289 288 287 287 287 287 287 287 287 287 288 288 289 289 289 289 290 290 290 291 292 292 293 294 294 295
292 290 289 289 288 288 288 288 288 288 287 288 288 287 287 287 286 287 287 287 286 287 287 287 288 288 288 288 289 289 290 290 291 291 292 292 292 293
290 289 289 288 287 287 287 287 287 287 287 287 287 287 287 286 287 287 287 286 286 286 286 286 286 287 287 288 288 289 289 289 290 290 291 291 292 293
289 288 287 287 286 286 286 286 286 286 286 286 286 286 286 287 287 286 286 285 285 285 285 286 286 286 287 287 288 288 288 288 289 289 290 290 291 291
288 287 286 286 286 286 286 286 286 287 286 286 286 286 286 287 287 285 285 285 285 285 285 285 286 286 286 287 287 288 288 288 288 288 288 289 289 289
287 286 286 285 286 286 286 286 286 286 286 286 286 286 287 286 285 285 285 285 285 285 285 285 285 285 286 286 286 286 286 286 287 287 287 288 288 288
286 286 286 285 284 285 286 286 286 285 285 285 286 287 285 285 284 284 284 284 284 285 284 284 285 284 285 285 285 285 286 286 286 286 287 287 288 288
286 286 285 285 285 285 285 285 285 285 286 286 286 285 285 284 284 284 284 285 284 284 285 284 284 284 284 284 285 285 286 286 286 286 287 287 287 288
286 285 285 285 285 285 284 285 285 285 286 285 284 284 284 284 283 284 284 283 283 284 284 284 284 284 284 285 285 285 286 286 286 286 287 287 287 288
285 285 285 285 285 285 285 285 285 285 285 284 283 283 283 284 284 283 283 283 283 284 284 283 284 283 284 286 288 288 287 287 287 288 287 287 287 288
285 285 285 285 284 285 285 285 284 284 283 283 283 284 284 283 283 282 283 283 282 283 285 283 284 283 284 287 287 288 288 289 290 289 287 287 288 288
285 285 285 285 284 284 285 284 283 283 282 283 284 283 282 282 282 282 282 282 282 281 284 283 282 282 283 285 287 290 291 291 291 290 289 290 290 289
285 284 284 284 284 284 283 283 282 282 283 283 282 282 282 282 282 282 282 282 282 282 286 282 282 282 282 283 287 290 290 291 290 291 290 289 289 289
284 284 284 284 283 282 281 281 281 282 281 281 281 281 281 282 283 284 285 285 284 284 286 285 283 283 283 283 284 290 290 291 290 290 289 289 289 290
284 283 284 283 281 281 280 281 281 281 281 280 280 281 282 284 285 285 285 285 285 286 286 286 285 285 284 284 284 286 287 290 290 289 289 289 291 291
283 283 282 281 280 280 280 280 280 280 280 280 280 282 283 283 284 283 284 284 284 286 286 286 285 285 285 285 286 287 290 288 289 289 289 290 292 292
282 281 280 280 280 280 280 280 280 280 280 280 281 282 282 282 284 284 284 283 283 284 286 286 286 285 286 287 288 289 289 289 289 289 289 290 293 292
280 280 279 279 279 279 279 280 281 282 282 283 283 283 282 283 283 284 284 284 283 285 285 286 285 285 286 288 289 288 289 289 289 289 290 290 291 292
279 279 279 278 278 278 279 281 282 283 284 284 283 283 283 283 284 284 285 284 285 285 285 285 285 286 286 286 288 290 289 290 289 289 289 290 290 292
278 278 278 278 279 281 282 282 283 284 284 284 284 284 284 284 284 284 285 285 285 285 285 286 286 286 286 286 287 289 290 289 289 290 290 290 291 293
278 278 278 280 282 282 283 283 284 285 285 284 285 285 285 285 285 285 285 286 285 286 285 285 286 286 287 287 287 288 290 290 290 290 290 289 290 291
278 279 281 282 283 283 283 284 285 285 285 285 285 285 286 286 286 286 286 286 286 285 285 285 286 287 287 286 287 288 290 290 290 290 290 291 290 290
281 281 282 283 283 284 284 285 285 286 286 286 286 286 286 286 286 287 286 286 285 285 285 285 286 286 287 287 287 288 289 289 289 289 290 291 292 292

GFSNE_850_thetae_039.txt.gz
Theta_e
294 294 293 292 291 291 290 289 289 290 290 289 290 290 289 288 288 288 287 287 288 289 289 289 289 289 290 290 290 291 291 291 292 292 292 293 293 295
294 293 292 291 290 289 289 289 289 289 289 288 288 288 288 288 288 287 287 288 288 288 288 288 288 288 288 289 289 290 290 291 291 292 292 293 293 294
292 292 291 290 289 288 288 288 287 287 287 287 287 288 288 287 287 287 287 287 287 287 287 287 288 288 288 289 289 289 290 290 291 291 292 292 292 293
292 291 290 289 288 287 287 287 287 287 287 288 288 287 287 287 287 287 287 287 286 286 286 287 288 288 288 288 289 289 289 289 290 290 290 291 291 292
291 290 289 288 287 287 287 287 287 287 287 287 287 287 286 287 287 287 286 286 285 285 286 286 287 287 288 288 288 288 289 289 289 289 289 289 290 290
290 289 288 287 287 287 286 286 287 286 286 286 286 286 286 287 286 286 285 285 285 285 285 286 286 286 287 287 287 287 287 288 288 288 289 289 289 289
288 288 287 287 286 286 286 286 286 286 285 285 286 286 287 286 285 285 285 285 284 285 285 285 285 285 286 286 286 286 287 288 288 288 288 289 289 288
288 287 287 286 286 286 286 286 286 286 286 286 286 286 286 285 285 284 284 284 285 284 284 285 285 285 285 285 286 287 287 287 288 289 289 289 289 289
287 287 286 286 286 286 285 286 285 285 286 286 286 285 285 284 283 284 285 284 283 283 283 284 284 285 285 286 286 287 287 288 288 288 289 289 289 289
287 286 286 286 286 286 285 285 285 284 285 285 284 284 284 284 285 285 284 283 283 283 283 284 284 285 285 285 287 288 288 288 288 289 289 289 290 289
286 286 286 286 285 286 286 285 284 284 283 284 284 284 285 285 284 284 283 283 283 283 283 282 284 284 284 286 286 287 287 289 290 290 289 289 289 290
285 285 285 285 286 286 285 285 284 283 282 282 283 283 283 283 283 283 283 283 282 282 284 283 282 282 283 284 286 288 289 290 290 290 291 290 290 290
284 284 284 285 285 285 285 284 283 283 283 282 282 282 282 282 282 282 282 282 282 282 285 282 281 282 281 282 286 287 289 290 290 291 291 290 289 289
284 284 284 284 284 284 283 282 282 283 282 281 281 281 281 281 282 283 284 284 283 282 285 284 282 283 282 282 283 287 288 289 289 290 290 289 290 290
284 284 284 284 283 282 281 282 282 281 281 281 281 281 281 283 284 284 284 283 283 285 285 285 284 283 283 283 284 285 285 289 290 289 289 289 290 290
283 283 283 282 281 281 281 281 281 281 281 281 282 283 283 283 284 283 283 284 283 285 286 286 285 283 284 285 285 285 287 287 288 289 289 289 290 290
283 281 281 280 280 280 280 281 281 282 282 282 282 283 284 283 284 284 284 283 281 283 285 286 286 284 285 286 286 287 288 288 289 288 288 289 290 290
281 280 280 280 280 280 280 281 282 283 283 283 284 283 283 283 283 284 284 284 282 284 284 285 284 285 286 286 287 288 287 288 289 289 288 289 289 291
279 279 279 279 279 280 281 282 283 283 284 284 284 284 284 284 284 285 285 285 285 285 285 284 285 285 286 286 286 287 287 288 289 289 289 289 289 291
279 279 279 279 281 281 282 282 283 284 285 284 285 285 285 284 285 285 285 284 284 284 284 284 284 285 286 287 286 288 288 288 288 289 289 289 290 290
279 280 280 281 282 282 283 283 284 285 285 284 285 285 286 285 285 286 285 286 284 284 284 285 285 285 286 286 286 287 288 290 289 289 289 290 290 290
280 281 282 282 283 283 283 284 285 285 285 285 285 286 286 285 286 286 286 286 286 285 286 285 285 286 286 286 287 287 288 289 289 289 290 290 290 291
282 282 283 283 284 284 284 285 285 286 286 286 286 286 286 286 287 286 286 286 286 286 285 285 285 286 286 287 287 288 288 288 289 289 290 291 291 292

GFSNE_850_thetae_042.txt.gz
Theta_e
297 296 296 295 294 293 291 290 289 289 289 289 289 289 288 287 287 287 288 287 288 289 290 290 289 290 290 290 291 291 291 292 292 293 293 293 294 295
296 295 294 294 293 291 290 289 289 288 288 288 287 287 287 287 287 287 287 287 287 288 288 288 289 289 289 290 290 291 291 291 292 292 293 293 294 294
295 294 294 292 291 290 289 288 287 287 287 287 287 287 287 287 286 287 286 286 287 287 287 288 288 289 289 289 290 290 290 291 291 291 292 292 293 293
294 293 292 291 290 289 288 287 287 287 287 287 287 287 287 286 285 286 286 286 286 286 287 287 288 288 288 289 289 289 290 290 290 291 291 291 292 292
293 292 291 290 289 288 287 287 286 286 286 286 286 286 285 285 286 286 286 285 285 285 285 285 286 287 288 288 288 289 288 289 289 290 290 290 291 291
291 290 289 288 288 287 287 287 287 286 286 286 285 285 285 286 286 285 285 285 284 284 284 285 286 285 286 286 286 287 287 287 288 289 289 290 290 290
289 288 288 288 287 287 287 287 287 287 286 286 285 285 286 285 285 285 284 284 284 285 285 285 284 285 285 286 286 286 286 288 288 289 289 290 290 290
287 287 287 287 286 287 287 287 287 286 286 285 285 285 285 285 284 284 284 284 284 285 284 284 284 285 285 285 286 286 286 287 288 289 289 290 290 290
286 286 286 286 286 285 286 286 286 286 286 285 285 284 284 284 284 284 285 285 285 284 283 283 284 285 285 285 286 286 286 287 287 289 290 290 290 290
285 285 286 286 286 286 286 286 286 285 285 284 284 284 284 284 284 285 285 284 284 284 283 283 284 284 285 285 286 286 287 287 288 288 288 289 290 290
284 285 285 285 285 286 286 286 285 285 284 283 283 283 284 284 284 284 283 283 282 283 283 282 283 283 283 285 285 286 286 286 287 289 288 288 290 290
284 284 284 285 285 286 285 285 285 284 283 283 283 283 283 283 283 283 282 282 282 282 283 282 281 281 281 282 284 286 287 287 288 288 289 290 290 289
284 284 284 284 285 285 285 285 284 283 283 283 282 283 283 284 284 284 282 281 281 281 285 281 281 281 281 281 284 286 286 287 287 289 290 290 290 289
284 284 283 284 284 284 284 283 283 283 282 282 282 283 283 284 284 284 284 284 284 283 284 284 282 282 282 282 282 285 286 287 287 289 289 290 290 290
283 283 283 283 282 282 281 282 282 281 281 281 282 283 283 284 284 284 285 285 285 285 285 285 283 283 282 282 283 284 285 287 288 288 288 289 289 289
283 283 282 281 281 281 281 282 282 282 282 282 283 284 284 284 284 284 284 284 284 286 286 285 285 282 283 283 284 285 286 285 287 287 288 287 288 289
283 281 281 280 280 281 282 282 283 283 283 284 284 284 284 284 284 284 284 284 282 283 285 286 285 283 284 284 285 286 286 287 287 287 287 287 289 288
281 280 280 280 280 281 282 283 283 284 284 284 284 284 284 284 284 285 284 285 284 284 284 285 283 284 284 285 285 286 286 286 287 287 287 287 288 288
280 280 280 280 282 282 282 283 283 284 284 284 284 284 284 284 284 285 285 285 285 285 284 284 284 284 284 285 286 286 286 287 287 287 287 287 288 289
280 280 281 282 282 283 283 283 284 285 285 285 285 285 285 285 285 285 285 285 285 284 284 285 285 285 285 286 286 288 287 287 288 288 288 289 289 289
281 282 282 282 283 283 284 284 284 285 285 285 286 286 286 285 286 285 285 286 285 285 285 286 285 285 286 286 286 287 289 289 288 288 289 289 289 290
281 282 282 283 283 284 284 284 285 285 286 286 286 286 286 286 286 286 286 286 286 286 286 286 285 286 286 286 287 287 288 289 289 289 290 290 290 290
282 282 283 284 284 284 285 285 285 286 286 286 286 286 286 286 286 286 286 286 286 285 285 285 286 287 287 287 288 288 288 289 289 289 290 291 291 291

GFSNE_850_thetae_045.txt.gz
Theta_e
301 299 297 296 295 294 293 291 290 289 289 289 289 288 288 287 287 287 287 287 287 288 289 289 290 290 290 291 291 291 292 292 292 293 294 294 294 295
299 297 295 294 294 293 292 291 289 288 288 288 287 287 286 286 286 286 286 285 286 286 288 289 289 289 290 290 290 291 291 292 292 292 292 293 294 294
296 295 294 294 293 292 291 289 288 288 287 287 287 286 286 286 285 285 285 286 285 285 287 287 288 289 289 289 289 290 290 291 291 292 292 292 293 293
295 294 293 292 291 290 289 288 288 287 287 286 286 286 285 285 285 285 285 285 284 284 285 286 286 287 287 288 289 289 289 290 290 290 290 291 292 292
294 293 292 291 289 289 288 287 287 287 287 286 286 286 286 285 284 285 284 284 284 284 284 285 285 286 287 287 287 288 288 288 288 289 289 290 291 291
293 291 289 288 288 288 287 287 287 287 287 286 286 286 285 285 285 285 284 284 284 284 284 285 285 285 285 285 285 285 286 286 287 288 289 289 290 290
291 289 288 287 287 287 287 287 287 287 286 286 286 285 285 285 284 284 284 283 284 284 285 285 284 284 285 285 285 286 286 286 288 288 288 289 290 290
289 288 287 286 286 286 286 286 287 287 287 286 286 285 284 284 283 283 283 284 284 284 284 284 284 284 285 285 285 285 286 285 287 287 288 289 290 290
287 286 286 285 285 285 285 286 286 286 286 286 285 284 283 283 283 284 284 285 284 284 283 282 285 285 285 285 285 286 286 285 286 287 288 289 290 290
286 285 284 284 284 285 286 286 286 286 285 284 284 284 283 284 284 284 284 283 283 284 284 282 284 284 284 284 285 286 286 286 286 287 287 287 288 289
284 284 284 284 284 286 286 286 285 284 284 284 283 283 283 283 283 283 282 282 282 284 284 282 283 282 283 285 285 285 285 285 285 286 286 286 287 288
284 284 283 284 285 285 286 286 285 284 283 283 283 283 283 284 284 283 283 282 282 281 283 282 281 281 281 282 284 285 286 286 286 286 287 287 288 288
284 283 283 283 284 285 285 284 284 284 283 283 283 284 284 284 285 285 284 283 282 281 284 282 281 281 281 281 283 285 286 286 286 287 287 288 289 288
283 283 283 284 283 283 282 282 283 283 283 283 283 284 284 285 285 285 284 284 284 283 285 285 282 282 281 281 282 285 285 286 286 287 287 288 288 288
283 283 283 282 281 281 281 282 282 283 283 283 283 284 284 284 284 285 285 285 285 285 286 285 284 284 282 282 282 283 284 286 287 287 286 287 287 288
282 283 282 281 281 281 282 283 283 283 283 283 284 284 284 285 285 285 285 285 285 286 286 286 285 284 283 283 283 283 285 283 286 286 286 286 287 288
282 282 281 281 282 283 283 284 284 284 284 284 285 285 285 284 285 285 285 284 283 285 286 286 286 285 285 284 284 285 285 286 286 286 286 286 288 289
281 280 280 282 283 283 283 284 284 284 284 285 285 285 285 285 285 285 284 284 284 285 285 285 285 285 285 285 284 285 285 286 286 287 287 286 286 289
280 281 282 282 283 283 283 284 284 285 285 285 285 285 285 285 284 284 285 284 285 285 285 285 285 285 284 283 285 285 286 286 287 287 287 287 286 289
281 282 282 283 283 283 284 284 285 285 285 285 286 285 285 284 284 285 285 285 285 284 285 285 285 285 284 285 285 288 288 287 287 287 288 288 289 289
282 282 283 283 283 284 284 284 285 285 285 286 286 285 285 285 285 285 285 285 285 285 285 285 285 286 286 287 286 288 289 289 288 288 288 288 289 289
282 282 283 283 284 284 285 285 285 286 286 286 286 285 285 285 285 285 285 285 285 285 285 285 286 286 287 287 287 287 288 289 289 289 290 289 289 289
282 283 283 284 284 285 285 285 285 286 286 286 286 286 285 285 285 285 285 285 285 285 285 286 286 287 287 287 287 287 288 288 289 289 290 291 291 291

GFSNE_850_thetae_048.txt.gz
Theta_e
305 305 302 298 297 295 295 293 292 290 290 290 290 289 288 288 287 286 286 286 286 286 287 288 289 290 290 291 291 292 292 292 292 293 294 295 295 295
301 302 298 296 295 294 293 292 291 290 289 289 288 288 287 287 286 286 286 285 285 285 286 287 288 289 289 290 290 290 291 291 292 292 293 293 294 295
299 298 295 295 294 293 292 291 290 289 288 288 287 287 287 286 286 286 285 285 285 285 285 287 287 288 288 288 289 289 290 290 291 292 292 293 293 294
296 295 294 294 293 292 290 290 289 288 287 287 287 287 286 286 285 285 285 284 284 284 284 286 286 287 287 288 288 289 289 289 290 290 290 291 291 292
295 294 293 293 291 290 289 288 288 287 287 287 287 286 286 285 285 284 284 283 283 284 284 285 285 285 286 287 288 287 287 287 288 288 289 289 290 291
297 295 293 290 289 288 288 287 287 287 287 286 286 286 285 285 284 284 283 283 283 284 284 285 285 285 285 285 285 285 285 285 286 287 288 289 289 290
294 291 289 288 287 287 287 287 287 286 286 286 286 286 285 285 284 283 283 283 284 284 285 284 285 284 286 286 286 286 286 286 286 287 288 288 289 289
290 288 287 287 286 286 286 286 286 287 287 286 286 286 285 284 283 283 284 284 284 285 284 283 285 285 286 285 285 285 285 285 286 287 287 287 288 288
287 287 286 285 285 284 284 284 285 286 286 286 285 284 284 283 283 284 284 284 283 284 283 283 285 285 285 285 285 285 285 285 285 286 287 288 288 288
286 285 284 284 284 284 285 286 285 285 285 285 284 284 284 284 284 284 283 283 283 284 284 282 284 284 285 285 285 286 285 285 285 285 286 287 287 287
285 284 284 284 283 285 285 286 286 285 284 283 283 284 284 283 283 283 283 283 284 284 285 282 284 283 284 285 285 285 285 285 285 285 286 285 286 287
285 284 283 283 284 285 286 285 284 283 283 283 284 284 284 284 284 284 284 283 283 281 283 282 282 282 282 283 284 285 286 286 286 286 286 285 285 286
283 283 283 283 284 285 284 283 283 284 283 283 283 284 284 285 285 285 284 284 283 283 285 283 281 282 281 282 284 285 285 286 286 286 286 286 286 286
283 283 283 283 283 282 282 281 282 283 283 283 284 284 284 285 285 285 285 285 284 284 285 285 283 283 282 282 282 285 285 285 285 286 286 287 286 286
283 283 283 282 281 281 281 283 283 283 284 284 284 285 285 285 285 285 285 285 285 285 285 285 284 284 283 282 283 284 285 286 286 286 286 286 286 287
282 282 282 281 281 282 283 284 284 284 284 284 284 285 285 285 285 285 285 285 285 286 286 285 285 284 283 284 284 285 285 283 286 286 286 286 287 287
282 281 281 281 283 284 284 284 284 284 284 285 285 285 285 285 285 285 285 285 284 284 285 286 285 285 285 285 285 286 285 285 286 286 286 286 287 288
280 280 282 283 283 283 284 284 284 285 285 285 285 285 285 285 285 285 284 284 284 285 285 285 285 285 285 285 284 285 285 285 286 286 286 285 286 288
280 282 282 283 283 284 284 284 285 285 285 285 286 285 285 285 284 284 284 284 284 285 285 285 285 284 283 283 286 285 285 286 286 287 287 287 287 288
281 282 282 283 283 284 284 284 285 285 285 286 286 285 285 285 285 285 285 284 285 285 285 285 286 285 284 284 285 288 288 286 286 286 287 287 287 288
282 282 283 283 284 284 284 285 285 285 285 286 286 286 286 285 285 285 285 285 285 285 285 286 286 286 286 287 285 287 289 289 288 287 287 287 288 289
282 283 283 284 284 284 285 285 285 285 286 286 286 285 285 286 286 285 285 285 285 285 285 286 286 286 287 286 286 287 288 289 289 290 290 289 289 288
283 283 284 284 284 285 285 285 285 286 286 286 286 285 286 286 286 286 285 285 285 285 285 286 286 287 287 287 286 287 288 289 289 290 291 291 290 291

GFSNE_850_thetae_051.txt.gz
Theta_e
304 308 307 303 299 297 296 296 295 293 292 293 292 291 290 289 288 288 287 287 286 286 286 286 288 289 290 290 291 291 292 292 293 293 293 294 295 295
307 304 304 302 297 296 295 295 294 292 290 290 290 289 288 288 288 287 286 286 285 285 285 286 287 288 289 289 290 290 291 291 291 292 293 294 294 295
305 298 296 297 295 294 294 293 292 290 289 289 288 288 287 287 287 286 286 285 285 285 284 285 286 287 288 288 289 289 290 290 291 291 292 292 293 293
300 299 300 294 294 294 293 291 290 289 288 287 287 287 287 286 286 285 285 285 284 284 284 285 286 286 287 287 288 288 288 289 289 290 290 291 291 292
302 300 294 297 299 292 290 289 288 288 287 287 287 286 286 286 286 285 285 284 283 284 285 285 286 286 286 287 287 287 287 287 288 288 288 289 290 290
296 299 302 298 292 289 288 288 287 287 287 286 286 286 286 286 285 284 284 283 284 285 286 285 285 285 285 285 286 286 286 286 286 286 287 288 288 289
299 295 290 289 288 288 287 287 287 287 286 286 287 286 286 285 285 284 283 284 284 285 285 284 284 285 286 286 286 286 286 286 286 287 287 288 288 289
291 289 288 287 287 286 285 285 285 286 286 286 286 286 285 284 284 283 284 284 283 284 284 284 285 286 286 286 286 286 285 285 285 286 287 287 288 288
288 287 287 287 285 285 285 284 285 285 286 286 285 285 284 284 284 284 284 284 283 284 284 285 285 286 286 286 286 286 286 286 285 285 287 287 287 288
287 287 285 285 284 284 284 285 285 285 285 285 284 284 284 284 284 284 283 283 283 284 284 284 284 285 285 285 286 286 286 286 285 285 286 287 287 287
285 285 284 284 283 284 285 285 285 285 284 283 283 284 284 283 283 283 284 283 284 284 284 283 284 284 284 285 285 286 286 285 285 285 285 285 285 286
284 284 283 283 283 285 285 285 284 283 283 284 284 284 284 284 284 284 284 284 283 282 282 283 282 282 282 282 284 285 286 286 286 286 285 285 285 284
283 283 283 283 284 285 284 283 282 283 283 283 284 284 285 285 285 285 285 284 284 283 285 282 282 282 280 282 284 285 285 286 286 286 286 286 285 285
283 283 283 283 283 282 281 281 282 282 283 284 284 285 285 285 285 285 285 285 285 285 285 284 282 283 283 282 282 285 285 285 286 286 286 286 286 286
283 283 282 282 281 281 281 283 283 283 284 284 285 285 285 285 285 285 285 285 285 285 285 285 284 284 283 283 283 284 285 286 286 286 286 286 286 286
282 282 281 280 281 282 283 283 284 284 284 284 285 285 285 286 285 285 285 285 285 285 285 285 285 284 284 284 284 284 286 284 286 286 286 286 286 287
282 281 280 281 283 283 284 284 284 284 285 285 285 285 286 285 285 285 285 285 284 285 285 286 285 285 285 285 285 286 286 286 287 286 286 286 288 287
280 280 281 282 283 283 284 284 285 285 285 285 285 285 285 285 285 285 285 285 285 285 285 286 286 285 286 285 284 285 286 286 287 287 286 285 286 287
280 281 282 283 283 284 284 284 285 285 285 285 286 286 285 285 285 286 286 285 285 285 285 286 285 284 283 283 286 284 284 285 286 286 286 286 287 288
281 282 282 283 283 284 284 285 285 285 285 285 286 285 284 284 286 286 286 285 285 285 285 286 286 285 284 284 284 288 288 286 286 286 286 287 287 289
282 282 283 283 284 284 284 285 285 285 285 285 286 285 284 285 286 286 286 285 284 284 284 285 286 286 286 286 285 287 289 288 288 287 288 287 288 288
282 283 283 284 284 284 284 285 285 285 286 286 286 285 285 286 286 286 286 286 286 285 284 285 286 286 287 286 285 286 288 289 290 290 290 289 289 288
283 283 284 284 284 285 285 284 284 286 286 286 286 285 286 286 286 286 286 286 286 285 285 285 286 286 287 286 286 287 288 289 290 291 292 291 290 289

GFSNE_850_thetae_054.txt.gz
Theta_e
312 307 305 302 305 307 301 298 296 295 295 296 294 293 291 290 290 289 288 287 287 286 286 286 286 288 289 289 290 291 291 292 292 293 293 294 295 295
306 304 305 305 302 303 299 295 294 293 292 294 293 291 290 289 288 288 287 286 286 286 286 285 286 287 288 289 289 290 291 291 291 292 293 293 294 295
303 303 303 303 302 296 296 295 298 298 296 292 290 289 288 288 287 286 286 286 286 286 285 284 285 287 288 288 289 289 290 290 291 291 292 293 293 293
301 303 302 299 300 300 301 301 298 291 290 289 288 287 287 286 286 286 286 285 285 285 284 285 286 286 286 287 288 288 289 289 290 290 290 291 291 292
302 301 301 301 301 301 299 294 290 288 288 287 287 287 286 286 286 286 285 285 284 284 285 286 286 286 286 286 287 287 287 287 288 288 289 289 289 290
300 302 301 300 300 292 289 288 287 287 287 287 287 286 286 286 285 285 284 284 284 286 286 286 285 286 286 286 286 286 286 286 286 286 287 287 288 289
301 300 300 297 291 288 287 287 286 286 286 286 286 286 286 286 285 284 284 284 284 285 286 286 286 286 287 287 286 286 286 286 286 286 288 288 288 288
300 295 288 287 287 287 285 285 284 284 286 286 286 286 285 285 284 284 284 284 284 285 285 285 285 286 286 286 286 286 286 286 286 286 287 287 287 287
290 288 286 286 286 285 285 284 284 284 285 286 285 285 285 284 284 284 284 283 283 284 283 285 285 286 286 286 286 286 286 286 286 286 286 287 287 287
287 286 286 285 285 284 284 284 285 285 285 285 284 284 283 284 284 283 283 283 283 284 284 284 286 285 285 285 286 286 286 286 285 285 286 286 287 287
286 285 284 284 284 283 285 285 285 285 284 283 283 283 284 284 284 284 284 283 284 285 285 283 285 284 285 285 285 285 285 285 285 285 285 285 285 286
284 283 283 283 283 285 285 284 284 283 282 283 284 285 285 285 285 284 284 284 284 284 284 283 284 283 282 283 284 285 285 286 286 286 286 285 285 285
283 283 283 283 284 284 283 282 282 283 283 284 284 285 285 285 285 285 285 285 284 285 285 282 282 283 281 283 284 285 285 286 286 286 286 286 286 285
283 283 283 282 282 281 281 281 282 283 284 284 284 285 285 285 286 286 286 285 285 285 285 284 283 284 283 282 283 285 285 286 286 286 287 287 286 285
282 282 282 281 281 281 283 283 284 284 284 284 285 285 285 285 286 286 286 286 286 286 285 285 284 284 284 284 284 285 285 287 287 287 286 286 286 286
282 281 280 281 282 283 283 284 284 284 284 284 285 285 286 286 286 286 286 286 286 287 286 286 285 285 284 284 284 285 286 283 286 286 286 286 286 287
281 281 281 282 283 284 284 284 284 284 285 285 285 285 286 286 286 286 286 286 285 286 287 287 286 286 285 284 284 286 286 286 286 286 286 286 287 287
281 281 282 283 283 284 284 285 285 285 285 285 285 285 285 285 286 286 286 286 286 286 286 286 286 286 285 284 284 285 286 285 286 286 286 285 286 287
280 282 283 283 283 284 284 284 285 285 285 285 285 285 285 285 285 286 286 286 286 286 286 285 285 284 283 283 285 285 285 286 286 286 286 286 287 289
281 283 283 283 283 284 284 284 285 285 285 285 286 286 285 284 285 286 286 286 286 285 286 286 285 284 284 284 284 288 287 286 286 286 287 287 288 290
283 283 283 284 284 284 284 285 285 285 285 285 285 285 284 284 285 286 286 286 285 285 285 285 285 285 285 286 285 288 290 289 288 288 289 288 289 289
283 283 284 284 284 285 285 285 285 285 285 286 286 285 285 285 285 286 286 285 285 285 285 285 285 285 285 285 285 287 289 290 290 290 290 290 289 289
283 284 284 285 285 285 285 285 285 284 285 285 286 285 285 285 285 285 285 285 286 286 286 285 285 285 285 286 286 287 289 290 290 290 290 290 290 289

GFSNE_850_thetae_057.txt.gz
Theta_e
322 320 318 310 307 306 308 302 304 308 304 295 294 294 293 292 291 290 290 289 289 288 287 287 287 287 289 289 290 291 291 292 293 293 294 295 295 296
320 317 310 304 305 303 302 304 303 297 296 295 296 302 301 294 291 289 288 288 287 287 287 286 286 287 288 288 289 290 291 291 292 292 293 294 294 294
314 308 303 301 301 302 300 300 299 298 300 301 300 294 289 289 288 288 287 286 287 286 286 285 285 286 287 288 289 289 290 290 291 291 292 292 293 294
304 299 299 301 301 300 299 300 299 299 298 293 290 289 288 288 287 286 287 286 286 286 285 285 286 287 287 287 287 288 289 289 290 290 290 291 291 292
299 299 300 300 300 300 300 299 299 298 292 290 288 288 287 286 286 286 286 286 285 286 287 287 287 287 287 286 287 287 287 287 288 288 288 289 289 290
299 301 301 300 301 300 299 298 293 289 288 287 287 287 286 286 286 285 285 284 285 287 287 286 287 287 287 287 286 287 287 287 286 286 287 287 288 289
302 300 300 299 299 299 289 287 287 286 286 286 286 286 286 286 285 285 284 284 286 287 287 287 287 287 287 287 287 287 287 286 287 286 287 287 288 288
299 298 297 292 288 286 285 285 285 285 285 286 286 286 285 285 284 284 284 284 284 286 285 284 286 286 287 286 286 286 287 286 286 286 287 287 288 288
297 293 287 286 286 285 285 285 284 284 285 286 285 285 285 284 283 284 284 283 284 286 284 284 286 286 286 286 286 286 286 286 286 286 286 287 287 287
287 286 286 286 285 284 284 284 285 285 285 285 284 284 283 284 284 284 284 284 284 286 285 284 286 285 285 286 286 286 286 286 285 285 286 286 287 287
286 285 285 284 284 284 285 285 285 285 284 283 283 283 284 284 284 284 285 284 284 286 285 284 285 284 285 286 286 286 286 286 285 285 285 285 285 286
284 284 284 284 284 285 285 284 283 282 283 284 285 285 285 285 285 285 285 285 285 284 284 283 284 283 282 285 285 286 286 286 286 286 286 286 286 284
284 283 283 283 284 283 283 282 282 283 284 285 285 285 285 285 286 286 286 285 285 285 286 283 283 284 282 283 285 286 286 287 287 287 287 287 286 286
283 283 282 282 281 281 281 282 283 284 284 285 285 285 286 286 286 286 286 286 285 286 286 285 284 284 284 283 284 286 287 287 287 288 287 287 286 286
282 282 281 281 281 282 283 284 284 284 285 285 285 285 286 286 286 286 287 287 287 287 287 286 285 285 284 284 284 286 286 287 287 287 286 286 286 287
281 281 281 281 283 283 284 284 284 284 285 285 285 285 286 286 286 286 287 287 287 288 287 286 286 285 285 285 284 286 287 284 287 286 286 286 287 287
281 281 281 283 283 284 284 284 284 285 285 285 285 286 286 286 286 286 286 286 286 286 287 287 286 286 285 285 285 286 286 286 286 286 286 286 287 287
281 281 283 283 284 284 285 285 285 285 285 285 286 286 286 286 286 286 286 286 286 286 285 286 286 286 286 284 285 285 285 285 286 286 286 284 287 288
281 283 283 284 284 284 285 285 285 285 285 285 285 285 285 285 284 285 286 286 286 285 285 285 285 284 283 283 285 285 285 287 287 287 287 287 288 290
283 283 284 284 284 284 285 285 285 285 285 285 285 285 285 284 284 284 283 285 285 285 285 286 286 285 284 284 284 288 287 286 287 287 288 288 289 290
283 283 284 284 284 285 285 285 285 285 285 285 285 285 285 284 284 284 284 285 285 285 285 285 286 285 285 285 284 286 288 288 289 289 289 289 289 290
283 283 284 284 285 285 285 285 285 285 285 285 285 285 284 284 284 285 284 285 285 285 285 285 285 284 284 284 284 285 288 289 289 290 290 290 290 289
283 284 284 284 285 285 285 285 285 285 285 285 285 285 285 285 286 285 285 286 286 285 285 285 285 284 284 285 284 285 287 288 289 289 290 290 290 290

GFSNE_850_thetae_060.txt.gz
Theta_e
327 325 325 323 321 319 314 304 304 303 302 300 297 299 301 298 293 294 299 302 299 292 289 288 288 288 288 288 289 290 291 292 293 294 294 295 296 296
324 322 322 312 312 308 304 303 303 303 301 299 299 299 297 296 299 300 299 292 289 288 288 287 287 287 287 287 289 290 291 291 292 293 294 294 295 295
321 318 317 315 303 301 300 301 302 302 302 300 300 299 299 300 296 291 290 288 287 287 287 287 286 286 287 288 289 290 290 291 292 292 293 293 293 294
317 316 309 306 300 300 301 302 303 302 302 300 299 299 297 291 290 288 287 286 287 287 286 286 286 287 287 287 287 288 289 289 290 291 291 291 292 292
309 303 299 299 301 301 302 302 301 300 298 298 295 291 288 288 287 286 287 286 286 286 286 287 288 287 287 287 287 287 287 287 288 288 289 289 290 290
301 300 301 301 301 301 300 299 298 297 293 289 288 287 287 287 287 287 287 287 286 286 287 288 288 288 288 288 288 288 288 287 287 287 287 288 288 289
302 301 300 301 300 299 299 295 291 288 287 286 287 288 288 288 288 287 286 286 286 287 287 287 286 287 288 288 288 288 287 287 287 287 287 288 289 289
301 300 299 299 297 293 290 289 287 286 287 288 288 288 288 287 287 286 286 285 285 286 286 286 287 286 287 287 288 287 287 287 286 286 287 287 288 288
299 298 296 291 288 287 287 286 285 284 284 286 287 287 287 286 285 284 285 285 285 286 286 285 286 286 287 287 288 287 287 287 286 286 286 287 287 288
290 288 287 286 285 285 284 284 285 285 285 285 285 285 285 285 285 285 285 285 285 286 286 285 286 285 286 287 288 287 287 287 286 286 286 286 286 287
286 285 285 284 284 284 285 285 286 285 284 283 283 283 284 285 284 284 285 285 285 286 286 285 286 285 286 287 287 287 287 287 287 287 286 286 286 286
284 284 284 284 283 285 285 285 284 284 283 284 285 285 285 285 285 285 285 285 285 285 285 285 285 283 283 286 286 287 287 287 287 287 287 287 286 285
284 283 283 283 283 283 283 283 282 283 284 285 285 285 285 286 286 286 286 286 286 286 286 284 285 285 282 284 288 287 287 288 287 287 287 287 287 286
283 283 283 283 282 282 282 282 283 285 284 285 285 285 286 286 286 286 286 286 286 286 287 285 285 285 285 285 285 287 287 287 287 287 287 286 286 286
282 282 282 281 282 282 284 285 285 285 285 285 286 286 286 286 286 287 287 287 287 287 287 286 286 285 285 285 285 286 286 287 287 287 286 286 286 286
282 281 281 282 283 284 285 285 285 285 285 285 286 286 286 286 286 286 286 287 287 287 287 286 286 285 285 286 284 285 286 283 286 287 286 286 286 287
281 281 282 283 284 284 285 285 285 285 285 285 285 286 286 286 286 285 286 286 286 287 287 287 286 285 285 285 285 286 285 285 286 286 285 286 287 288
281 281 283 284 284 284 285 285 285 285 285 285 285 285 285 286 286 285 285 284 284 285 286 286 286 285 285 285 285 286 285 285 286 286 286 286 288 289
281 283 283 284 284 285 285 285 285 285 285 285 285 285 285 285 285 284 283 284 284 285 285 284 285 285 285 285 285 285 285 286 286 287 287 287 288 291
282 283 284 284 284 285 285 285 285 286 285 285 285 285 285 284 284 284 284 283 284 285 285 285 285 285 285 285 284 286 286 286 286 287 288 289 290 290
283 284 284 284 284 285 285 285 286 286 285 285 285 285 284 284 284 284 284 284 284 285 286 286 286 285 285 285 285 285 286 286 286 287 288 288 289 290
283 284 284 284 285 285 285 285 286 286 286 285 285 285 285 285 285 285 285 285 285 286 286 286 285 286 285 285 286 285 285 287 287 288 288 289 288 287
283 284 284 284 285 285 285 286 286 286 286 285 285 285 285 285 285 285 286 285 285 286 286 286 286 286 286 286 286 285 285 286 287 287 288 289 289 289

GFSNE_850_thetae_063.txt.gz
Theta_e
322 322 322 323 322 321 319 316 315 310 307 308 299 299 300 299 301 300 299 302 298 298 301 299 291 289 289 289 289 289 289 291 293 294 294 295 296 297
321 321 321 321 320 319 316 317 316 307 301 301 303 303 303 301 301 302 303 301 300 300 296 292 289 288 288 287 287 288 290 292 293 293 294 295 295 296
321 320 319 319 318 313 313 311 310 301 303 304 305 303 302 301 301 299 299 299 295 291 289 288 288 288 287 287 289 290 290 291 291 292 293 294 294 294
317 316 316 314 311 311 307 305 303 304 304 303 302 301 299 298 298 296 292 290 288 288 287 288 287 287 288 288 288 288 288 289 290 290 291 292 293 293
313 311 310 308 306 303 304 304 303 303 302 300 299 298 297 294 292 289 288 287 287 287 287 287 288 288 288 288 288 288 288 288 289 289 289 289 290 290
305 303 303 302 302 302 302 302 301 300 299 298 294 291 288 288 288 288 288 288 287 287 287 288 288 288 289 288 289 288 288 288 287 287 288 288 288 289
299 299 300 301 301 301 300 298 298 296 293 289 287 288 288 289 289 288 288 287 286 286 288 288 287 288 288 288 288 288 288 287 287 287 288 288 289 289
299 300 299 299 298 298 297 294 289 287 287 287 288 288 288 288 288 287 287 286 286 287 287 288 287 288 288 288 288 288 288 287 287 287 287 287 288 289
298 298 298 296 291 289 287 286 285 285 285 285 285 287 287 287 287 286 285 285 285 287 286 287 288 287 289 288 288 288 288 287 287 287 286 286 287 288
292 288 287 287 287 286 285 285 285 285 286 286 285 286 286 286 285 285 285 285 286 286 286 286 287 288 289 289 289 288 288 288 288 287 287 287 287 287
287 286 286 285 285 285 285 286 286 286 285 284 283 283 283 284 285 285 286 285 285 287 287 287 287 287 288 289 289 289 288 288 287 287 287 287 286 287
285 285 285 284 284 284 285 286 285 284 284 284 285 285 286 285 285 285 285 285 285 285 286 286 287 286 285 288 288 288 288 288 287 287 287 287 286 286
284 284 283 284 283 283 283 283 284 283 284 285 285 285 285 285 285 285 286 285 286 286 287 285 286 286 284 286 288 288 287 287 287 287 287 287 287 287
283 283 283 283 282 282 282 282 283 285 285 285 285 285 285 286 286 286 286 286 286 286 287 286 286 286 285 285 286 287 287 287 287 287 287 286 286 286
282 282 282 282 282 282 283 285 285 285 285 286 286 286 286 286 286 286 286 287 287 287 287 287 286 285 285 284 284 286 286 288 288 287 286 286 285 285
282 282 282 282 283 284 285 285 285 285 285 286 286 286 286 286 287 286 287 286 286 287 287 286 285 284 284 284 283 284 286 283 286 287 286 287 286 287
281 282 282 283 284 284 284 285 285 286 286 286 286 286 286 286 286 286 286 286 285 285 286 286 286 284 283 284 284 285 285 285 285 285 285 286 286 287
281 281 282 283 284 284 284 285 285 286 286 286 286 286 286 286 286 286 285 284 283 283 284 285 284 284 285 285 285 285 285 285 285 286 285 285 287 289
282 282 283 284 284 284 285 285 286 286 286 286 286 286 285 285 285 285 285 284 283 283 284 284 285 285 285 285 285 285 285 285 286 286 286 285 286 289
282 283 284 284 284 285 285 286 286 286 286 286 286 286 285 285 285 285 285 284 283 284 284 284 285 285 285 285 285 285 286 285 286 286 286 286 287 288
282 283 284 284 285 285 285 285 286 286 286 286 286 286 285 285 285 285 285 285 284 284 284 285 286 286 285 286 286 286 286 286 286 285 286 286 286 286
282 283 284 284 285 285 285 285 286 286 286 286 286 285 285 285 285 285 285 285 285 284 285 285 286 286 286 286 286 286 286 287 286 286 286 286 286 286
281 282 283 284 284 285 285 285 286 286 286 285 285 285 285 285 285 285 285 285 284 284 285 285 286 286 286 286 286 286 287 286 286 286 286 287 287 287

GFSNE_850_thetae_066.txt.gz
Theta_e
323 324 323 322 322 321 319 318 316 312 311 314 313 312 307 307 304 305 301 302 301 300 301 300 301 300 298 293 290 290 289 289 292 294 294 295 296 297
322 321 321 320 320 320 319 316 314 312 311 308 309 305 306 305 305 301 300 300 300 300 300 300 298 291 289 289 288 288 289 291 293 293 294 295 296 296
317 317 318 318 318 317 315 312 311 310 309 305 304 302 303 304 302 300 300 300 300 299 294 292 289 288 288 288 288 289 291 291 292 292 293 294 295 295
315 315 315 314 313 310 309 308 306 306 304 304 304 303 302 301 300 300 299 296 295 292 288 288 288 288 288 288 289 289 289 290 290 291 292 292 292 293
312 315 310 308 307 306 305 302 305 303 303 302 302 301 300 299 296 294 291 288 288 288 288 288 287 288 289 289 289 289 289 289 289 289 289 290 290 290
306 311 305 303 301 301 300 301 300 302 301 299 299 298 295 290 288 288 289 289 288 287 287 286 288 289 289 289 289 289 288 288 289 289 289 289 289 289
300 300 299 299 298 299 299 299 299 298 297 295 291 288 288 288 289 289 288 288 287 286 287 288 288 289 289 289 289 288 288 288 289 289 289 289 289 290
299 299 300 298 298 298 295 292 293 289 288 288 287 288 288 288 288 288 287 287 285 287 288 289 288 290 289 289 289 288 288 288 288 288 288 288 288 289
297 297 297 297 297 294 288 287 286 285 285 286 286 286 287 287 287 286 286 285 287 287 288 291 289 290 289 289 289 289 288 288 288 288 288 288 288 289
296 292 288 287 286 285 285 285 286 286 286 286 286 285 285 286 285 285 286 287 288 287 286 288 289 290 290 290 289 289 288 288 288 288 287 287 288 289
286 285 285 285 285 285 284 285 286 286 286 285 284 283 283 283 284 286 286 286 287 288 288 288 288 288 290 290 290 289 288 288 287 288 287 287 287 288
285 285 284 284 284 284 284 284 285 285 284 283 284 285 286 286 286 286 286 286 286 287 287 287 288 287 287 289 288 288 289 288 287 287 287 287 286 287
284 284 284 284 283 283 283 283 283 283 283 284 286 286 286 285 286 286 286 286 286 286 287 285 287 287 285 286 288 289 288 288 288 287 287 287 286 286
283 283 283 282 282 282 282 283 283 285 285 285 285 285 285 286 286 286 286 286 286 287 287 286 286 286 285 285 286 287 287 287 287 287 287 286 286 286
283 283 282 282 282 283 284 285 285 285 285 285 285 286 286 286 286 287 286 286 287 287 287 286 286 285 283 283 284 286 286 286 287 286 287 287 287 286
282 282 282 282 283 284 285 285 285 285 285 285 285 286 286 286 286 286 286 286 286 287 286 285 285 284 283 283 284 285 285 284 286 286 286 287 287 287
282 282 282 283 284 285 285 285 285 285 285 285 285 286 286 286 286 286 286 286 286 286 286 285 283 283 284 284 285 286 285 285 285 285 285 285 286 286
282 282 283 284 285 285 285 285 285 286 286 286 286 286 286 286 286 286 285 285 285 285 284 285 283 284 284 285 285 286 285 285 285 285 286 286 286 287
282 282 283 284 285 285 285 285 286 286 286 286 286 286 286 286 285 286 285 285 285 285 284 284 283 284 284 284 285 285 285 286 286 286 286 286 286 287
283 282 283 284 284 284 285 286 286 286 286 286 286 286 286 286 286 285 285 284 284 284 284 284 284 283 283 284 285 286 286 286 286 286 286 286 286 287
282 282 282 283 284 284 285 285 285 286 286 286 286 286 286 285 285 285 285 284 283 283 284 285 285 285 285 285 285 285 286 286 286 286 286 286 286 286
282 282 282 282 283 284 284 285 285 285 286 286 286 285 285 284 284 284 284 284 284 284 284 285 285 285 285 285 285 285 286 286 286 286 286 286 286 286
282 281 281 281 282 283 284 284 284 285 285 285 285 285 285 284 284 284 284 284 284 284 284 285 285 285 285 285 285 285 286 286 286 285 286 286 286 286

GFSNE_850_thetae_069.txt.gz
Theta_e
320 320 321 321 321 322 321 319 319 315 314 312 306 304 304 307 306 306 307 305 304 301 299 298 299 300 300 300 299 295 292 290 291 293 295 295 296 297
317 316 316 318 320 321 320 319 316 313 312 311 310 308 309 309 305 308 303 303 300 298 297 300 299 299 298 293 290 289 289 291 293 294 295 296 296 296
313 314 315 316 315 316 316 313 312 310 309 309 309 309 305 307 302 305 300 300 300 298 299 298 295 293 290 288 288 289 290 291 292 292 293 294 294 295
312 313 313 314 313 313 314 310 307 306 307 305 305 303 305 302 302 301 299 298 297 296 293 290 288 288 288 288 289 289 290 290 291 292 292 293 293 293
311 312 311 310 309 307 310 305 303 302 303 302 302 302 301 300 298 297 296 293 291 289 288 288 287 287 287 289 289 290 290 290 290 290 290 290 290 291
309 308 307 304 301 303 304 302 301 300 299 300 299 299 298 296 294 291 288 288 288 288 287 286 286 288 289 289 289 289 289 289 289 289 289 290 289 290
304 303 302 300 300 301 301 299 298 298 298 295 295 294 291 288 289 289 288 288 288 287 286 288 288 289 289 289 289 289 289 289 289 289 289 290 290 290
300 300 300 299 300 299 299 299 298 295 294 289 287 288 288 288 288 288 287 287 286 286 288 289 289 289 289 289 289 289 289 289 289 289 289 289 289 289
299 298 298 298 297 296 292 288 286 286 286 286 286 287 287 287 287 287 286 285 285 287 288 290 289 289 289 289 289 289 289 289 288 288 288 288 289 289
292 289 288 287 287 286 286 286 286 286 286 286 286 286 285 285 285 285 284 286 286 286 287 288 289 290 290 290 290 289 289 288 288 288 288 287 288 288
286 286 286 285 285 285 284 285 285 285 286 286 285 284 283 283 283 284 285 285 286 287 288 288 288 290 290 290 289 289 289 288 288 288 287 287 288 287
285 285 284 284 284 284 283 283 284 284 284 284 284 284 285 285 285 285 286 286 286 287 287 287 287 287 289 289 289 289 289 288 287 287 287 287 287 287
284 284 284 283 283 283 283 283 283 283 283 284 285 285 285 285 285 285 286 286 286 287 286 286 287 287 284 286 289 289 289 288 287 287 287 287 286 286
284 283 283 283 283 283 283 283 284 285 285 285 285 286 286 286 286 286 286 287 286 286 286 286 286 286 285 285 285 288 288 287 286 287 286 286 286 286
283 283 283 282 282 283 284 285 285 285 285 285 286 286 286 286 286 287 287 287 287 287 287 286 286 286 283 283 284 286 286 287 287 286 286 286 286 287
283 283 283 283 283 284 285 285 285 285 286 286 286 286 286 286 286 287 287 287 287 288 287 285 285 283 284 283 283 285 286 284 287 286 285 286 286 287
283 283 283 283 284 285 285 285 285 285 285 286 286 286 286 286 286 286 286 286 286 287 287 286 284 283 283 283 285 286 286 286 286 286 285 286 287 287
283 283 283 284 285 285 285 285 285 285 286 286 286 286 286 286 286 286 286 285 285 286 286 286 285 284 285 286 286 287 285 285 286 286 286 286 286 287
283 283 283 283 284 285 285 285 285 286 286 286 286 286 286 286 286 286 285 285 285 285 285 285 285 284 283 283 286 286 285 285 286 286 286 286 286 286
283 283 283 282 284 284 284 285 285 285 285 286 286 286 286 286 286 285 284 284 285 285 285 285 285 285 283 283 283 286 286 285 285 286 286 286 286 286
283 282 282 282 282 283 284 284 285 285 285 285 285 285 285 285 285 285 284 284 283 283 284 285 285 284 284 284 284 286 286 286 285 285 285 285 285 285
283 282 282 281 281 281 282 283 284 284 285 285 285 285 284 284 284 284 284 284 284 284 284 285 285 285 285 285 284 285 285 285 285 285 286 286 285 285
283 282 282 281 281 281 281 282 283 284 284 284 284 284 284 284 283 284 284 284 284 284 284 284 285 285 285 284 284 285 284 285 285 285 286 286 286 285

GFSNE_850_thetae_072.txt.gz
Theta_e
315 316 319 318 318 319 319 320 316 316 316 316 314 314 312 307 304 303 302 303 304 304 301 301 301 299 299 297 298 298 298 296 294 292 293 295 296 297
314 312 312 314 315 315 317 317 317 315 313 313 312 310 308 308 299 301 301 301 301 301 300 300 298 297 297 297 297 294 293 292 291 294 295 295 296 297
310 311 312 312 313 314 314 313 313 313 312 311 309 308 306 304 302 301 302 302 300 300 299 298 297 298 297 294 292 290 290 291 292 293 293 294 295 295
309 310 310 311 311 311 311 310 309 309 307 306 305 305 304 302 302 301 300 300 299 298 297 297 296 292 290 289 289 288 290 290 291 291 291 292 293 293
309 310 310 310 310 309 308 307 305 304 302 304 304 303 303 302 300 299 299 298 298 297 295 292 289 288 288 287 288 290 290 290 290 290 290 290 290 291
308 307 308 307 306 305 304 303 302 301 302 303 301 301 300 299 299 299 297 293 290 288 288 288 288 287 286 288 289 289 289 289 289 289 289 289 290 290
304 303 303 302 302 302 301 300 299 300 300 299 298 297 296 296 293 290 289 289 288 288 287 286 286 288 288 288 289 289 289 289 289 289 289 290 290 290
300 301 301 300 299 299 298 298 298 297 297 293 289 289 288 288 288 288 288 287 287 286 286 287 288 288 288 289 289 289 289 289 289 289 289 289 289 290
300 300 299 298 297 295 292 288 287 286 286 286 286 287 287 287 287 287 287 286 285 285 287 288 288 289 289 289 289 290 289 289 288 288 289 288 289 289
289 288 288 287 287 287 286 286 286 286 286 286 286 286 286 285 285 285 285 284 285 286 287 288 289 289 289 290 290 289 289 288 288 288 288 288 288 288
287 287 286 286 285 285 285 285 285 285 285 285 285 284 283 283 283 283 284 285 286 286 287 287 288 289 290 290 289 289 288 288 288 287 287 287 288 288
286 285 285 285 284 284 284 283 283 284 284 284 284 284 284 285 285 285 285 285 286 287 288 287 288 288 289 289 289 289 288 288 288 288 287 287 287 287
285 284 284 284 283 283 283 283 283 283 284 285 285 285 285 285 285 286 286 286 286 286 286 286 287 286 286 288 290 289 289 289 288 287 286 286 286 286
284 284 283 283 283 283 283 283 284 285 285 285 285 285 285 286 286 286 286 287 287 286 286 285 286 285 283 285 287 288 289 289 288 288 286 286 286 286
284 284 283 283 283 283 284 285 285 285 285 285 285 285 285 286 286 286 287 287 287 287 286 286 285 286 283 284 285 287 287 289 288 288 287 286 286 286
284 283 283 283 283 284 285 285 285 285 285 285 286 286 286 286 286 286 287 287 287 287 286 286 285 284 284 284 284 287 287 286 288 287 286 286 286 286
284 284 283 283 284 285 285 285 285 285 285 286 286 286 286 286 287 286 287 287 287 287 287 287 285 284 284 285 285 287 287 287 287 287 286 286 286 286
284 284 283 283 284 285 285 285 285 285 285 286 286 286 286 286 286 286 286 286 286 287 286 286 286 286 286 286 286 287 287 286 286 286 286 285 286 286
284 283 283 283 283 284 284 285 285 285 286 286 286 286 286 286 286 286 285 285 285 285 285 285 284 284 284 285 286 286 286 286 285 285 285 285 285 286
283 283 283 282 282 283 283 284 285 285 285 285 286 286 285 285 286 286 285 284 284 284 285 285 285 284 283 283 283 287 286 286 285 285 286 285 285 286
283 283 283 283 282 282 282 282 283 284 285 285 285 285 285 285 285 285 284 284 284 283 284 284 285 284 284 283 283 286 287 286 285 285 285 285 285 285
284 283 283 282 282 282 281 282 282 282 284 284 284 284 284 284 284 284 284 284 284 284 284 284 284 284 284 284 284 285 286 286 286 286 285 285 285 284
284 283 283 283 282 282 282 281 282 282 282 283 284 284 284 284 284 284 284 283 283 283 283 284 284 284 284 284 284 284 284 285 285 286 286 286 286 285

GFSNE_850_thetae_075.txt.gz
Theta_e
320 315 316 316 316 316 316 315 315 316 314 315 315 314 314 313 312 311 309 306 305 303 301 300 301 300 300 300 300 299 299 298 299 299 297 296 296 298
312 312 313 313 311 311 313 313 314 315 313 312 312 312 311 310 307 307 304 301 300 300 299 299 300 299 299 298 298 297 297 297 295 294 295 296 296 297
309 309 309 310 310 310 311 311 311 311 311 310 309 309 308 306 303 302 300 299 299 299 300 299 297 297 297 297 297 296 295 293 292 293 294 294 295 295
309 308 308 309 309 309 309 309 309 308 307 307 308 306 304 304 301 300 299 299 298 298 298 298 297 297 297 294 293 292 290 290 291 291 291 292 293 294
309 308 308 308 309 308 308 306 306 306 305 304 303 302 302 300 300 299 299 297 297 298 298 297 295 292 291 290 288 287 289 290 290 290 290 290 291 292
307 305 305 306 306 305 304 303 304 303 302 302 301 300 299 299 298 298 297 297 297 296 290 289 288 288 288 287 286 287 289 289 289 289 289 289 290 290
304 303 303 302 301 300 301 301 301 300 300 300 299 298 297 297 296 295 293 290 289 288 288 288 288 286 286 287 288 288 289 289 289 289 289 290 290 291
301 301 300 300 300 299 299 299 299 299 298 295 291 289 289 288 288 288 288 288 287 287 286 286 286 287 288 288 288 289 289 289 289 289 289 289 289 290
298 297 296 295 294 292 289 288 288 287 287 286 286 286 286 287 287 287 287 286 285 285 285 287 288 288 288 289 289 289 289 289 289 289 289 290 289 289
288 288 288 287 287 287 286 286 286 285 285 285 286 286 285 285 285 285 285 285 285 285 286 287 288 288 288 289 289 290 289 289 289 289 289 289 289 288
287 287 287 286 285 285 285 285 285 285 285 285 284 284 284 283 284 284 283 284 285 286 287 287 288 289 289 290 290 290 289 288 288 288 288 288 288 288
287 286 286 285 284 284 284 284 284 284 284 284 284 284 284 284 285 285 285 285 286 286 287 287 288 288 289 289 289 289 288 288 288 288 288 288 287 287
287 286 285 284 284 284 284 284 284 284 285 285 285 285 285 285 285 285 285 285 286 286 286 285 286 287 288 289 290 289 288 288 288 288 288 288 286 286
286 285 285 284 284 284 284 284 285 286 286 286 285 285 285 285 285 286 286 286 286 286 286 286 285 286 284 286 288 289 288 288 288 288 288 286 286 286
286 285 285 284 284 284 284 285 285 286 286 286 286 286 286 286 286 286 286 287 287 287 287 286 286 285 284 285 287 288 287 288 288 288 287 287 287 287
286 285 285 285 284 284 285 285 286 286 286 286 286 286 286 286 286 286 287 287 287 287 287 286 286 285 286 286 286 287 287 286 288 288 287 287 287 287
286 285 285 284 284 284 285 285 285 285 285 285 286 286 286 286 286 286 287 287 287 287 287 286 285 285 285 285 285 286 287 287 287 287 286 287 288 287
286 285 284 284 284 284 284 285 285 285 285 286 286 286 286 286 286 286 286 286 287 287 286 285 285 285 285 285 285 286 286 286 286 286 286 285 287 287
286 285 285 284 283 283 283 283 284 285 285 285 286 286 286 286 286 286 286 286 286 286 286 285 285 284 283 284 286 285 285 286 285 285 286 286 285 286
285 285 285 284 283 283 282 282 282 283 284 285 285 285 285 285 285 286 285 285 285 285 286 285 285 284 283 283 283 286 285 285 285 285 285 285 286 286
285 285 284 284 284 283 283 282 282 282 282 283 284 284 284 284 285 285 284 284 284 284 284 285 284 283 283 283 283 285 286 285 285 285 285 284 285 286
285 285 284 284 284 283 283 282 282 282 281 281 282 282 283 283 284 284 284 284 284 284 284 284 284 283 283 284 284 284 285 286 285 285 285 284 284 284
285 285 284 284 284 284 284 283 283 282 282 281 281 281 282 282 282 283 283 283 283 283 283 284 284 283 283 283 283 284 284 285 285 286 286 286 285 285

GFSNE_850_thetae_078.txt.gz
Theta_e
320 321 321 317 316 316 316 315 315 312 312 312 312 312 311 311 311 311 311 310 306 306 306 305 305 306 304 302 303 302 301 301 300 300 300 300 299 298
314 313 311 311 312 312 310 310 311 311 311 311 310 310 310 309 309 308 307 306 304 304 303 303 302 300 300 300 300 300 299 298 298 297 297 297 297 298
309 309 309 309 309 309 309 309 309 309 309 309 308 308 308 308 307 306 303 301 301 300 300 300 299 298 298 298 298 298 298 298 296 295 295 295 296 296
309 308 308 307 307 307 307 308 308 308 307 306 306 306 305 306 305 304 302 300 299 299 298 298 298 297 297 297 297 297 297 296 292 291 292 293 294 295
308 308 307 307 307 307 307 306 304 305 305 305 305 303 303 303 302 302 301 300 299 299 298 298 297 296 296 296 295 293 289 289 290 290 290 291 291 293
307 306 304 305 306 305 304 303 303 302 302 302 301 300 301 301 300 299 298 297 297 297 296 294 292 289 289 289 288 288 287 287 289 289 289 289 289 290
304 304 303 303 302 301 301 300 300 300 300 300 300 299 298 297 296 295 293 291 290 289 289 288 288 288 287 287 287 287 288 288 289 289 289 289 290 290
302 301 301 300 299 298 297 296 294 292 291 291 290 290 289 288 288 288 288 288 287 287 287 286 286 286 286 287 288 288 289 289 289 289 289 289 289 290
292 291 290 289 288 288 288 287 287 287 287 287 287 286 286 286 286 286 286 286 285 285 285 286 287 287 288 288 288 289 289 289 289 289 289 290 290 289
289 288 288 288 288 287 287 286 286 286 286 286 286 285 285 285 285 285 285 285 284 284 285 286 287 288 288 288 289 289 289 290 290 289 289 289 289 289
288 287 287 287 286 286 286 286 285 285 285 285 285 284 284 284 284 284 284 285 286 286 286 287 288 288 288 289 289 289 289 289 288 288 288 289 289 289
288 287 287 287 286 285 285 285 285 285 284 284 284 284 284 285 285 285 286 286 286 286 287 286 287 288 288 288 289 288 288 288 288 288 288 289 289 289
288 287 287 286 286 285 285 285 285 285 285 286 286 286 286 286 286 286 286 286 286 286 286 286 287 287 287 288 288 288 288 288 288 287 288 289 289 289
287 287 286 286 286 286 285 285 285 286 286 286 286 286 286 286 286 286 286 286 286 287 287 286 285 286 285 286 287 288 288 288 288 288 288 288 288 287
287 286 286 286 286 286 286 285 286 286 286 286 286 286 286 286 286 286 287 287 287 287 287 286 286 286 284 285 286 287 287 289 288 288 288 287 288 287
287 286 286 286 286 286 285 286 286 286 286 286 286 286 286 286 287 287 287 287 287 287 286 286 286 286 286 286 286 287 287 286 287 287 287 287 288 287
287 286 286 286 286 285 285 285 285 286 286 286 286 286 286 287 287 287 287 287 287 288 287 286 285 285 286 286 287 288 287 287 287 287 286 286 287 288
287 286 286 286 285 285 284 284 284 284 285 285 285 286 286 286 286 286 286 286 286 286 286 285 285 285 286 287 286 287 286 286 287 286 286 286 287 288
286 286 286 285 285 285 284 284 284 283 283 283 284 285 285 285 285 285 285 285 286 286 286 285 285 284 284 284 286 285 286 286 285 286 285 285 286 288
286 286 286 285 285 285 284 284 283 283 282 282 282 282 283 284 284 285 285 284 285 285 285 285 284 283 283 283 283 286 285 284 285 285 286 285 285 286
286 286 286 286 285 285 285 284 284 283 282 282 282 282 281 281 283 283 284 284 283 284 284 285 284 283 283 282 283 285 285 285 285 285 285 285 285 286
286 286 286 285 285 285 285 284 284 283 283 282 282 281 281 281 281 281 282 283 283 283 283 283 284 283 283 283 283 283 285 285 284 284 285 284 284 283
285 285 285 286 285 285 285 284 284 284 284 283 283 282 282 282 282 282 282 282 282 282 282 283 283 283 283 283 283 283 284 284 284 284 285 285 285 285

GFSNE_850_thetae_081.txt.gz
Theta_e
319 318 318 317 318 318 315 316 316 312 311 311 310 310 310 310 310 310 310 309 309 309 308 309 310 309 307 306 306 305 305 304 304 303 303 302 302 300
317 317 316 315 312 310 311 311 309 309 309 310 309 309 308 308 308 307 307 308 308 307 306 306 306 306 306 304 304 303 303 301 301 301 301 300 299 298
309 309 309 309 309 309 308 308 308 308 308 308 308 307 306 307 307 306 304 304 304 303 304 304 304 304 303 303 302 301 300 299 299 299 298 297 297 297
308 309 308 307 307 306 306 306 307 307 307 307 306 305 304 305 304 303 303 302 303 302 301 301 301 300 300 299 298 298 298 297 297 298 296 293 294 294
309 308 307 307 306 306 306 306 306 306 306 305 304 303 302 302 302 303 303 302 302 301 300 300 299 299 299 298 298 298 297 296 292 289 289 290 291 293
308 307 305 304 305 306 305 305 304 304 303 302 301 299 299 299 299 299 300 300 299 299 298 297 296 295 294 293 292 290 288 288 287 288 289 289 289 289
306 305 305 304 304 304 303 302 301 301 300 299 299 298 297 296 295 294 292 292 291 290 289 289 288 288 287 287 287 287 287 286 287 288 289 289 290 290
303 303 303 302 299 295 294 291 289 289 289 288 288 288 288 288 288 288 288 287 287 287 287 286 286 286 286 286 287 288 288 288 288 288 289 289 289 290
293 291 290 290 290 289 288 288 288 287 287 287 287 287 287 286 286 286 286 286 285 285 285 285 286 287 287 288 288 288 288 288 288 288 289 289 290 290
289 289 289 289 289 288 288 287 287 287 287 286 286 286 286 285 285 285 285 285 284 285 285 286 287 287 288 288 288 288 289 289 289 289 289 289 289 289
289 289 289 288 288 287 287 287 287 286 286 286 285 285 285 285 285 285 285 286 286 286 287 287 288 288 288 288 288 289 289 289 289 289 289 289 289 289
288 289 288 287 287 287 287 287 286 286 286 286 286 286 286 286 286 286 286 286 286 287 287 287 288 288 288 288 288 288 288 288 288 288 289 289 289 289
288 288 287 287 287 287 287 287 286 286 287 287 287 287 287 287 287 286 286 287 287 287 287 287 287 287 287 288 288 288 287 288 288 288 288 288 288 289
288 288 287 287 287 287 287 287 287 287 287 287 287 287 287 287 287 287 287 287 287 287 287 287 286 286 286 286 288 288 288 288 288 288 288 287 288 288
288 288 288 287 287 287 287 287 287 287 287 287 287 287 286 286 286 287 287 287 287 287 287 286 287 286 286 286 287 287 288 288 288 289 288 287 287 288
288 288 287 287 287 286 286 286 286 286 287 287 286 286 286 287 287 287 287 287 287 287 286 286 286 286 287 287 287 288 287 287 287 287 287 287 287 288
287 287 287 287 286 286 285 285 285 285 285 285 286 286 286 286 286 286 287 286 287 287 287 286 286 286 286 286 286 287 287 287 287 286 286 287 288 287
288 287 287 286 286 286 285 285 285 284 284 284 284 284 285 285 285 286 286 286 286 286 287 286 285 285 286 287 286 286 286 286 286 286 285 285 287 287
288 287 287 286 286 286 285 285 285 284 284 284 283 283 282 283 284 285 285 285 285 286 286 285 285 284 284 284 286 285 286 286 285 285 285 285 285 287
287 287 286 286 286 286 285 285 285 285 284 284 283 282 282 281 282 282 283 284 284 284 285 285 284 283 283 283 283 286 285 284 284 285 285 285 285 286
286 286 286 286 286 286 285 285 285 285 284 284 284 283 282 281 281 281 281 281 282 283 283 284 283 283 282 282 282 285 285 285 284 284 284 284 285 286
286 286 286 285 285 285 285 285 285 285 284 284 284 283 283 282 282 282 281 282 282 283 283 284 283 283 282 282 282 283 284 284 284 284 284 284 284 284
287 286 286 285 285 285 285 286 286 285 285 284 283 284 284 284 283 283 283 283 283 283 283 284 284 283 283 283 282 283 283 284 284 284 285 284 285 285

GFSNE_850_thetae_084.txt.gz
Theta_e
321 321 321 320 317 317 315 315 314 313 312 312 311 310 310 310 308 309 309 309 309 309 310 310 311 312 312 310 308 306 306 305 306 306 306 306 306 305
318 320 317 317 316 316 314 311 311 311 311 309 310 309 308 308 307 307 307 307 307 307 307 308 308 308 308 307 306 305 305 305 304 304 304 304 302 301
312 314 314 312 309 309 309 309 309 308 308 308 308 307 306 306 306 307 306 305 304 304 304 305 305 305 306 305 305 304 304 303 302 302 302 301 300 299
308 308 308 308 308 307 307 307 307 307 307 307 307 306 305 305 305 305 304 303 303 302 303 303 303 303 303 303 302 301 301 300 299 299 300 299 297 297
308 308 309 308 307 306 306 306 306 306 306 306 305 305 303 302 302 301 303 303 302 302 302 302 302 302 301 301 301 300 299 299 298 298 297 295 293 293
308 308 307 307 306 306 306 306 305 304 304 303 303 302 300 299 299 299 298 299 299 299 299 299 299 298 296 296 295 294 292 290 289 288 288 288 289 290
307 306 306 305 305 305 304 303 303 302 301 300 298 297 296 295 294 293 291 290 290 290 290 290 289 289 288 288 288 288 288 287 287 287 287 289 289 290
305 304 304 303 302 301 297 294 291 290 290 289 289 288 288 288 288 288 288 287 289 288 287 287 287 287 287 287 286 287 287 288 288 288 288 289 290 290
302 299 295 292 290 290 290 290 290 289 288 288 288 287 287 287 287 287 286 286 286 286 286 286 286 287 287 288 288 288 288 288 289 289 289 289 289 289
290 290 290 289 289 289 289 289 288 288 288 287 287 287 286 286 286 286 285 285 286 286 286 287 287 288 288 288 289 289 289 289 289 289 289 289 289 289
289 289 289 289 289 289 289 288 288 288 287 287 286 286 286 286 286 286 286 287 287 287 287 288 288 288 289 289 289 289 290 290 289 289 289 289 289 289
289 289 288 288 288 288 288 288 288 287 287 287 288 288 288 288 288 287 287 287 287 287 287 287 288 288 288 288 289 289 289 289 289 289 289 289 289 289
289 288 288 288 289 288 287 288 288 287 288 288 288 288 287 287 287 287 287 287 287 287 287 287 288 287 287 288 288 288 288 288 288 289 289 289 289 289
288 288 288 288 288 288 288 288 287 288 288 288 288 287 287 287 287 287 287 287 287 287 287 287 287 287 287 287 287 288 288 288 288 288 288 288 289 289
287 288 288 288 288 287 287 287 287 287 287 287 287 287 287 287 287 287 287 287 287 287 287 287 287 287 286 287 287 288 288 289 288 288 288 288 288 288
287 287 288 288 287 287 287 287 286 287 287 287 286 286 287 287 287 287 287 287 287 287 287 287 287 287 287 287 287 288 288 287 288 287 288 288 287 287
287 287 287 288 287 287 286 286 286 286 286 285 285 285 285 285 285 286 286 286 286 286 286 286 286 287 287 287 287 287 287 287 287 287 287 287 288 288
287 287 287 287 287 286 286 286 286 286 285 285 285 284 284 284 283 284 285 285 286 286 285 285 285 285 286 287 287 287 286 286 286 286 285 286 287 287
287 287 287 287 286 286 286 286 286 286 285 285 284 284 283 283 282 282 282 283 284 285 285 284 284 284 284 283 285 286 286 285 285 284 284 285 285 287
287 287 287 286 286 286 286 286 286 286 286 285 285 284 283 283 282 282 282 282 282 283 283 284 283 283 283 283 283 285 284 284 284 284 285 284 285 286
287 287 286 286 286 286 286 286 285 286 286 285 285 284 284 283 283 282 282 282 282 282 283 283 282 282 282 281 282 285 284 284 284 284 284 283 284 285
287 287 286 286 286 286 285 285 285 286 286 286 285 284 284 283 283 283 283 283 283 283 283 284 284 283 283 282 283 283 284 284 284 284 284 284 283 283
288 287 287 286 286 285 285 285 285 286 286 286 286 285 283 283 283 283 283 283 283 283 283 283 283 283 282 282 282 283 283 284 283 283 284 284 284 284

GFSNE_850_thetae_087.txt.gz
Theta_e
318 321 321 320 320 321 318 316 315 314 313 313 312 311 310 309 309 308 307 308 308 308 308 308 309 311 313 313 313 312 309 308 307 306 305 307 307 307
318 320 321 319 320 317 316 314 314 312 311 311 311 309 308 307 307 307 307 307 306 306 306 306 306 308 310 310 309 308 307 306 305 305 306 305 305 305
313 314 315 317 316 315 311 309 309 310 310 310 308 308 307 306 306 306 306 306 305 303 304 303 305 305 305 306 306 306 305 304 304 304 302 301 301 301
309 310 310 309 308 308 308 308 307 307 307 307 307 307 307 305 305 305 305 305 304 303 302 302 303 303 303 304 304 303 303 302 301 301 300 299 299 299
307 307 308 308 308 307 307 307 306 306 306 306 307 306 305 304 303 302 303 303 303 303 303 303 302 301 301 302 302 301 301 300 300 299 298 298 298 298
307 308 308 308 307 307 306 306 306 306 305 305 304 303 302 300 300 300 299 298 298 299 299 299 299 299 298 299 299 299 297 294 292 291 290 289 289 289
307 307 306 306 306 306 306 305 304 303 302 302 300 297 295 294 293 292 291 290 290 289 289 289 289 289 289 289 289 289 289 288 288 288 287 287 288 289
305 305 305 305 304 304 304 302 298 295 293 291 290 290 290 289 289 289 288 288 289 289 288 287 288 287 287 287 287 287 287 287 287 287 287 288 289 290
303 303 302 300 296 292 291 290 289 290 289 289 289 289 289 289 288 287 287 287 287 287 286 287 287 287 288 288 288 288 288 289 289 289 289 289 289 290
298 294 291 290 290 290 290 290 290 289 289 289 288 288 288 287 287 287 287 286 287 287 287 288 288 288 289 289 289 289 289 289 289 289 290 289 290 290
290 290 290 289 289 289 289 289 289 289 289 288 287 288 287 287 287 287 288 288 288 288 288 288 288 289 289 289 289 289 290 290 289 290 290 290 290 290
289 289 289 289 289 289 289 289 288 289 288 288 289 289 289 289 288 288 288 288 288 288 289 288 288 289 289 290 289 289 289 290 290 290 290 290 290 290
289 289 289 289 289 289 288 288 289 288 288 289 289 289 288 288 288 288 288 288 288 288 288 288 288 288 288 289 289 289 289 289 289 289 289 289 289 289
288 289 289 289 289 288 289 289 288 287 288 288 288 288 288 288 288 288 288 288 288 288 287 288 287 287 287 288 289 288 289 289 289 289 289 289 289 289
288 288 289 288 288 288 288 288 288 288 288 288 288 288 288 287 287 287 288 288 288 288 288 288 288 288 288 288 288 289 289 290 289 289 289 288 288 288
288 288 288 288 288 288 288 287 287 287 287 287 287 287 287 287 287 287 287 287 287 287 287 287 287 287 288 288 288 289 288 288 288 288 288 289 289 288
287 288 288 288 288 288 287 287 287 287 287 287 286 286 286 285 285 285 285 285 286 286 287 287 287 287 287 287 288 288 287 287 287 287 287 288 288 288
287 288 288 287 287 287 287 287 287 287 287 286 286 286 285 285 284 284 284 284 284 285 285 285 285 286 286 287 287 287 287 286 286 286 286 286 287 288
287 287 288 288 287 287 287 286 287 287 286 286 286 286 285 285 284 284 283 284 284 284 284 284 284 284 283 284 286 285 285 285 285 285 285 284 285 286
287 287 288 288 287 287 287 286 286 286 286 286 286 286 286 285 284 284 283 283 284 284 283 282 282 283 283 283 283 285 284 284 283 284 284 284 284 285
287 287 287 287 287 287 286 286 286 286 285 285 286 286 286 285 285 284 284 283 283 283 284 284 283 282 282 282 282 286 285 284 284 283 284 283 284 285
288 288 287 287 287 286 286 286 285 285 285 285 286 286 286 286 286 285 284 284 284 283 284 284 283 283 283 282 283 284 285 285 284 284 283 283 283 283
289 289 288 288 287 286 286 286 285 285 285 285 285 286 285 289 287 285 284 283 283 283 283 283 283 283 283 282 282 283 283 284 284 284 284 284 283 284

GFSNE_850_thetae_090.txt.gz
Theta_e
314 317 320 321 318 319 320 317 320 317 315 314 313 313 311 310 309 308 307 307 307 307 307 306 308 309 310 311 313 314 313 312 310 309 308 307 306 307
311 319 314 318 317 316 317 319 316 315 312 312 312 310 310 308 307 306 306 306 306 305 304 305 306 307 309 310 311 311 310 309 308 307 306 305 305 305
310 312 316 314 313 315 317 316 315 312 312 311 309 309 308 307 306 305 305 305 304 303 302 302 303 305 306 307 308 308 307 306 305 305 304 304 303 302
308 309 310 311 312 312 310 308 308 308 308 308 308 307 306 306 305 304 304 304 304 303 302 303 304 304 304 304 304 305 304 304 303 302 302 301 300 299
307 307 308 308 308 308 308 307 307 307 306 306 306 306 306 304 303 302 302 302 302 302 302 302 303 303 303 303 302 303 302 302 302 301 301 300 299 299
306 307 307 307 307 307 307 306 306 306 306 305 306 305 303 301 299 298 298 298 296 296 297 297 298 298 299 299 299 300 300 299 298 297 296 295 294 292
304 306 306 306 306 306 306 306 306 305 304 304 303 301 297 295 294 293 292 291 290 290 289 289 289 289 289 289 289 288 288 288 288 288 288 288 288 288
303 304 305 305 305 304 304 304 302 302 301 298 294 292 291 291 290 289 289 288 288 290 288 288 288 288 287 287 287 287 287 287 287 287 287 287 287 288
303 304 303 303 303 302 301 297 292 291 290 290 290 290 290 290 289 288 288 288 288 288 287 287 288 287 288 288 289 289 288 288 288 289 289 289 289 289
301 301 301 296 292 291 291 290 290 290 290 289 289 289 289 289 288 288 287 288 288 288 288 288 289 289 289 289 290 289 289 289 289 289 289 289 289 289
295 291 290 290 290 290 290 290 290 290 289 289 288 288 288 288 289 288 288 289 289 289 289 289 289 289 289 289 289 290 289 289 289 289 289 289 290 290
289 289 289 289 289 289 289 289 290 290 289 289 289 290 289 289 289 289 289 289 288 288 289 289 289 289 289 289 290 289 289 290 290 289 289 290 290 290
288 289 288 288 288 288 288 289 290 290 289 289 290 290 290 289 289 289 289 289 288 288 289 288 288 289 289 289 289 289 289 289 289 289 289 289 289 289
288 288 289 288 288 288 288 288 289 289 289 289 289 289 289 289 289 289 288 288 288 288 288 288 288 288 288 289 289 289 289 289 289 290 290 290 289 289
288 288 289 289 288 288 288 289 289 289 289 289 289 289 289 288 288 288 288 288 288 288 288 288 288 288 288 288 289 289 289 289 289 290 289 289 289 289
288 288 288 288 288 288 289 289 289 288 289 289 288 288 288 287 287 287 287 287 287 287 288 288 288 288 288 288 287 289 288 288 288 288 288 289 289 289
288 288 288 288 288 289 289 289 289 288 289 288 288 287 287 287 287 287 286 286 286 286 286 287 287 287 287 287 288 288 287 287 287 287 287 288 288 288
288 288 288 288 288 288 288 288 288 288 288 287 287 287 287 286 286 286 286 286 286 285 285 285 285 285 286 287 286 286 286 286 286 286 286 285 287 287
288 288 288 288 288 288 288 288 288 287 287 287 287 286 286 286 286 286 286 286 286 285 284 284 284 283 283 285 287 285 285 285 285 285 284 284 284 286
288 288 288 288 288 288 287 287 287 286 286 286 286 286 286 286 287 287 286 285 285 285 285 284 284 283 283 283 284 287 284 284 283 284 285 285 285 285
288 288 288 288 288 287 287 287 286 286 286 286 286 286 285 286 286 286 286 285 285 285 285 285 284 282 282 282 283 286 286 284 284 284 285 284 285 285
289 289 289 288 288 287 287 286 286 286 286 286 285 285 285 285 286 286 286 286 285 284 284 283 283 283 282 282 283 284 285 285 285 284 284 283 283 282
290 290 289 289 289 288 288 287 287 286 286 286 285 285 285 285 285 286 288 287 286 285 283 283 283 282 283 282 282 284 285 285 285 285 285 284 283 283

GFSNE_850_thetae_093.txt.gz
Theta_e
312 312 313 314 316 320 319 319 318 320 319 317 315 314 313 311 310 309 307 307 307 307 306 305 307 308 309 312 314 316 316 314 314 313 311 309 308 306
310 310 312 313 318 315 318 319 316 317 317 314 313 311 311 308 309 307 306 306 305 305 303 304 305 307 309 311 312 311 312 312 311 310 309 308 306 305
308 309 310 314 314 315 315 315 315 315 314 312 310 309 307 308 306 306 305 304 303 302 301 302 302 304 305 308 308 309 309 309 308 307 306 305 304 303
307 308 308 309 311 312 311 313 314 313 309 308 308 306 307 306 306 304 303 303 303 302 301 301 302 303 304 305 305 305 306 305 304 304 303 302 302 301
307 307 307 308 308 309 309 308 307 307 307 307 306 306 305 305 304 302 302 301 302 301 301 301 301 302 303 303 303 303 303 302 302 302 303 302 301 300
306 306 306 306 306 306 306 306 306 306 306 306 306 306 304 303 301 299 298 298 297 295 295 295 296 297 298 299 300 301 301 301 301 300 299 298 298 298
304 303 304 305 305 306 306 306 305 305 306 305 305 303 302 300 296 295 294 293 291 290 290 290 289 289 289 289 289 289 289 290 290 290 289 289 289 289
302 302 302 304 305 305 305 304 305 304 304 303 302 299 295 293 292 291 290 289 289 289 289 288 288 288 288 288 288 288 288 288 287 287 287 287 287 287
301 301 301 303 303 303 304 303 303 302 299 294 292 291 291 291 290 290 289 288 288 288 288 287 288 288 288 289 289 289 289 289 289 289 289 289 289 289
300 301 301 301 300 299 298 295 292 290 290 290 290 290 290 290 289 289 288 288 288 289 289 289 289 289 289 289 289 289 289 289 289 290 290 289 289 289
299 299 298 295 291 290 290 290 290 290 290 290 290 289 289 289 289 289 289 289 290 290 289 289 289 289 289 289 289 290 289 289 289 289 289 289 289 289
292 290 289 289 289 289 289 289 289 290 289 289 289 289 290 290 290 290 290 289 289 289 290 289 289 289 289 289 289 290 289 289 290 289 289 289 289 289
288 289 289 289 288 289 288 289 289 289 289 289 290 290 290 290 290 290 289 289 289 289 289 289 289 289 289 289 289 289 289 289 289 289 289 289 289 289
288 288 288 289 288 288 288 289 289 289 289 290 290 290 290 290 289 289 289 289 289 288 289 289 289 289 289 289 289 289 289 289 289 289 289 290 290 290
288 288 288 288 288 288 288 288 288 288 289 290 290 290 289 289 289 288 288 288 288 288 288 288 288 288 289 289 289 289 289 289 289 289 289 289 290 289
287 287 288 288 288 288 288 288 288 288 289 288 289 289 288 288 288 288 288 288 287 287 287 287 288 288 288 288 288 289 288 288 288 288 288 289 289 289
287 287 287 288 288 288 288 288 288 288 288 288 288 288 287 287 287 287 288 288 287 286 286 286 286 287 287 287 288 288 287 287 287 287 287 287 288 287
287 288 288 288 288 288 288 288 288 288 288 287 287 287 287 287 287 287 288 288 287 286 286 286 285 285 286 286 286 286 286 286 285 285 285 286 287 286
287 288 288 288 288 287 287 287 287 288 287 287 287 287 286 286 286 287 287 287 288 286 285 285 285 285 285 286 285 285 286 285 286 286 285 284 286 287
288 288 288 288 287 287 287 287 287 287 287 287 286 286 286 286 286 287 287 287 287 286 285 285 285 284 284 285 285 285 285 285 284 285 285 285 285 286
288 288 288 288 287 287 287 287 287 287 287 287 286 286 286 285 286 286 286 286 286 287 287 287 284 283 284 284 285 286 285 284 284 284 285 285 286 287
290 290 289 289 288 288 287 287 287 287 287 287 286 286 286 285 285 285 285 286 286 287 288 286 284 283 283 283 284 285 285 285 284 284 285 284 284 283
292 291 290 290 289 289 288 288 288 288 287 287 286 286 286 285 285 285 284 285 285 288 287 286 284 282 282 282 282 283 284 285 285 286 286 284 283 283

GFSNE_850_thetae_096.txt.gz
Theta_e
311 311 311 312 313 315 320 320 319 321 319 318 317 316 315 313 311 309 308 307 306 306 307 306 307 308 310 313 315 316 318 317 316 315 313 314 312 310
310 310 310 310 313 314 314 317 317 317 318 317 316 315 313 310 307 308 307 306 305 305 305 304 306 307 309 312 314 316 315 314 313 312 312 311 309 308
308 308 308 309 311 311 315 314 316 317 315 315 313 312 310 307 306 307 306 305 303 303 302 303 303 305 307 309 310 310 310 311 311 311 310 309 308 306
307 307 307 308 308 310 310 311 312 312 312 312 311 309 307 305 306 305 304 304 303 302 302 303 302 303 305 306 307 307 308 308 308 307 306 305 304 304
307 307 306 307 307 307 308 310 310 310 311 310 307 306 305 305 305 304 303 302 302 302 302 301 301 302 303 303 303 304 304 304 305 304 303 303 303 302
306 306 306 305 306 306 307 307 307 307 307 306 306 305 305 304 304 302 300 299 298 298 296 296 297 297 298 299 300 301 302 302 302 302 301 301 300 299
306 304 303 303 303 305 305 305 306 306 305 305 305 305 304 304 302 299 296 295 294 292 291 290 290 289 289 289 290 290 292 293 295 295 294 293 292 291
301 302 302 301 300 302 304 305 305 304 304 305 304 303 302 301 297 294 293 292 290 290 290 289 289 288 288 288 288 288 288 288 288 288 288 288 288 288
301 301 300 301 301 302 303 303 303 303 303 302 301 298 295 293 292 291 290 290 289 289 289 288 288 288 288 289 289 289 289 289 289 288 288 288 289 289
300 300 300 301 301 301 302 302 302 301 299 294 292 291 291 291 290 290 289 289 288 288 288 289 289 289 289 289 290 289 289 289 290 290 290 289 289 289
299 300 300 299 299 298 295 291 290 290 290 289 290 290 290 290 289 289 289 289 288 289 290 290 289 289 289 290 290 290 290 290 290 290 290 290 290 290
298 298 297 293 290 289 289 289 289 289 289 289 289 289 289 289 290 290 290 289 290 289 290 289 289 289 289 289 289 290 289 290 290 290 290 290 290 290
290 289 289 288 288 288 288 288 288 289 289 289 289 290 290 290 290 290 290 290 290 289 289 289 289 289 289 289 289 289 289 289 289 289 289 289 289 289
288 288 288 288 288 288 288 287 288 289 289 289 290 290 290 290 290 289 290 289 289 289 289 289 289 289 289 289 288 289 289 289 288 289 289 289 289 290
287 288 288 287 288 288 288 287 287 288 288 289 289 290 289 289 289 289 289 289 288 288 288 288 288 289 289 289 289 289 288 288 289 289 289 289 290 290
287 287 287 288 288 288 287 287 287 288 288 288 288 289 289 288 288 288 288 288 288 288 288 287 287 287 288 288 288 289 288 288 288 288 289 289 289 289
287 287 287 287 288 288 288 287 288 288 288 288 288 288 288 288 288 288 288 288 288 287 287 287 287 287 287 287 287 287 287 287 287 287 288 288 287 287
287 288 288 288 288 288 288 287 287 288 288 287 287 287 287 287 287 287 287 287 287 286 286 286 286 286 286 287 287 287 287 287 286 286 286 287 287 287
287 288 288 288 288 288 288 287 288 287 287 287 287 287 286 286 286 286 287 287 288 287 286 285 285 285 285 286 286 286 286 286 286 286 285 286 287 288
287 288 288 288 287 287 287 287 287 287 286 287 287 286 286 286 286 286 286 286 287 287 286 286 286 285 285 285 284 286 286 285 285 285 285 285 286 288
288 288 289 289 288 287 287 287 287 287 286 286 286 286 286 286 286 286 286 285 285 286 287 288 287 284 284 284 286 287 285 284 284 284 285 285 286 287
290 289 289 289 289 289 288 287 287 286 287 287 287 287 286 286 286 286 285 285 285 285 286 286 285 284 284 284 285 285 285 284 284 284 284 284 285 285
295 293 293 293 291 290 289 289 288 288 287 287 287 287 286 286 286 286 285 285 285 284 284 285 286 285 285 284 283 284 284 284 284 284 285 284 284 284

GFSNE_850_thetae_099.txt.gz
Theta_e
311 311 311 311 311 312 313 319 319 320 319 318 317 317 317 316 314 311 310 309 307 306 306 306 306 307 309 312 314 314 316 318 318 316 316 314 314 312
310 310 310 310 309 309 313 317 317 317 314 316 317 316 315 314 312 309 307 307 305 304 304 304 305 307 309 312 313 315 317 317 316 316 314 313 313 312
309 309 308 308 308 308 310 314 314 314 314 316 315 314 313 312 310 307 306 306 304 302 301 302 303 305 308 310 311 313 314 314 313 312 312 311 311 309
309 308 307 307 307 307 308 309 310 311 312 313 313 312 311 310 308 305 306 305 304 301 301 301 301 302 305 308 309 309 309 309 309 310 309 309 308 307
308 307 307 306 306 306 306 307 308 308 308 309 309 309 309 307 305 305 305 304 302 302 302 301 301 301 304 306 307 307 307 307 307 307 306 305 304 303
306 306 306 305 305 305 305 305 307 307 307 307 308 307 305 305 304 304 304 302 300 300 300 299 298 298 299 301 302 303 303 304 304 304 303 303 302 302
306 305 304 303 302 301 302 304 305 305 305 306 305 305 304 304 304 304 302 299 297 295 293 291 291 290 291 291 293 296 298 300 301 301 300 300 299 298
304 302 302 301 301 300 300 301 303 304 304 304 305 305 305 304 303 302 299 296 294 292 290 290 290 289 289 289 289 289 289 289 289 289 289 289 289 289
301 300 300 300 300 300 300 302 303 304 304 303 303 303 302 301 300 297 294 292 291 289 290 290 289 289 289 289 289 289 289 289 289 289 288 288 288 288
300 300 300 300 300 300 300 301 301 302 302 302 301 299 296 294 292 291 290 289 289 289 289 289 289 289 289 289 290 290 290 290 290 290 290 289 290 290
299 299 299 299 299 300 299 298 298 299 298 295 292 291 291 290 290 290 289 289 288 289 289 290 290 290 290 290 290 290 290 290 290 290 290 290 290 290
298 298 298 299 297 295 291 290 290 289 289 289 289 289 289 289 289 289 288 289 289 289 290 290 290 289 290 290 290 290 290 290 290 290 290 290 290 290
297 296 293 290 289 288 288 288 288 288 289 289 288 288 288 289 289 289 289 290 290 290 290 290 290 289 289 289 290 290 290 290 290 290 290 290 289 289
288 288 288 288 288 288 288 287 287 288 288 288 288 289 289 289 289 289 289 289 289 289 289 289 289 289 289 289 289 289 289 289 289 289 289 289 289 289
288 287 287 287 287 288 288 287 286 287 288 289 288 289 289 289 289 289 289 289 289 289 289 288 288 289 288 288 289 289 289 289 289 289 289 289 289 290
288 287 287 287 287 287 287 287 287 287 287 288 288 288 288 289 289 288 289 288 288 288 288 288 289 288 288 288 288 288 288 288 289 289 289 289 289 289
288 287 286 286 287 287 287 287 287 287 287 288 288 288 288 288 288 288 288 288 288 288 288 288 288 288 288 287 287 287 287 288 288 288 288 288 288 288
288 288 288 287 287 287 287 287 287 287 287 287 287 287 288 288 288 287 287 287 288 288 288 288 288 288 288 288 288 288 287 287 287 287 287 288 287 287
287 288 288 288 288 288 288 287 287 287 287 286 287 287 287 287 287 287 287 286 287 287 288 287 288 288 287 289 288 287 287 286 286 287 287 287 287 288
288 288 288 288 287 287 287 287 287 287 286 287 287 287 287 287 286 286 286 286 286 286 286 286 288 288 288 287 285 287 287 286 286 285 286 286 287 287
289 289 288 288 288 288 288 287 287 287 286 286 286 286 286 286 286 286 286 285 285 285 286 286 288 285 285 286 288 290 287 286 285 285 285 285 286 287
297 295 292 290 289 289 289 288 288 287 287 287 286 286 286 286 286 286 286 285 285 285 285 285 285 284 285 287 288 288 288 286 284 284 284 284 284 285
296 296 296 296 295 292 290 290 291 289 289 288 287 287 286 286 286 286 286 286 285 285 284 285 284 283 284 285 286 287 287 287 285 285 285 283 283 284

GFSNE_850_thetae_102.txt.gz
Theta_e
311 311 311 311 310 311 311 311 311 315 317 317 319 319 317 316 315 314 314 312 311 308 306 306 306 306 308 311 313 314 315 317 318 318 315 315 315 314
311 311 310 309 309 309 309 309 310 314 314 315 315 313 315 315 314 312 311 309 307 306 304 304 304 306 308 311 313 315 317 318 318 317 316 315 315 314
312 310 309 309 308 308 308 308 308 312 313 313 312 314 314 314 313 311 309 308 306 304 302 302 302 305 307 310 312 314 315 315 316 316 315 315 314 312
309 309 308 308 308 307 307 307 308 310 310 311 311 312 312 312 311 309 308 305 305 302 301 300 301 302 305 307 309 311 311 312 312 312 312 312 311 310
309 308 307 307 306 306 306 306 305 306 307 307 308 309 309 309 309 307 305 304 304 302 300 300 301 301 303 306 307 308 308 308 307 308 308 308 308 306
307 307 306 306 305 305 304 304 304 304 304 305 306 306 307 307 305 304 304 303 303 301 300 300 300 300 299 303 304 305 306 306 306 306 305 305 305 304
307 305 305 304 302 301 301 301 301 302 304 304 304 303 304 303 303 303 303 302 301 299 298 296 294 293 293 295 298 300 301 302 302 303 303 303 303 302
306 305 304 301 301 301 301 300 299 302 303 302 303 303 303 303 302 302 302 302 299 296 294 292 290 290 290 290 289 290 291 293 296 298 300 300 299 297
305 303 301 301 301 301 301 300 300 301 302 302 302 302 302 303 302 302 302 299 296 293 290 290 290 289 289 289 288 289 289 289 289 289 289 289 289 289
300 300 300 300 300 300 300 300 300 301 301 302 302 302 301 299 299 298 296 294 292 291 290 289 289 288 289 289 289 290 289 290 290 290 289 289 289 289
299 299 299 299 299 300 300 299 299 300 301 301 301 300 298 295 293 292 291 291 290 289 289 288 289 289 289 289 290 290 290 290 290 290 290 290 290 290
297 298 297 298 299 299 297 295 294 291 289 289 289 289 289 290 290 290 290 289 288 288 289 289 290 290 289 290 290 290 290 290 290 290 290 290 290 290
297 296 296 295 293 290 289 289 288 288 289 289 288 289 289 289 289 288 289 289 289 289 290 289 290 290 289 289 290 290 290 290 290 290 290 290 290 290
293 289 288 288 288 288 288 288 287 287 288 288 288 288 288 288 288 289 289 290 290 290 289 289 290 289 289 289 289 290 290 290 290 289 289 289 290 290
291 288 288 287 287 287 288 287 286 287 287 288 288 287 288 288 289 289 289 289 290 289 289 289 289 289 289 289 289 289 289 289 289 289 289 289 289 289
293 289 287 287 287 287 287 287 287 287 287 287 288 287 288 289 289 289 289 289 289 289 289 289 289 288 288 288 288 288 289 289 289 289 289 289 289 289
292 289 288 287 287 288 287 287 287 287 287 287 287 287 287 288 288 288 288 288 288 288 288 288 289 289 289 289 289 288 288 288 288 288 289 289 289 288
293 289 288 288 288 288 287 287 287 287 287 287 287 286 287 287 287 288 288 288 288 287 287 287 289 289 289 289 290 290 289 289 288 288 288 288 288 288
291 289 288 288 288 288 288 288 288 287 286 286 286 286 287 286 286 287 287 287 287 287 286 286 288 288 288 289 289 289 289 288 288 288 288 288 288 287
295 290 288 288 288 287 287 287 287 287 287 287 287 287 286 286 286 286 287 287 287 286 286 286 286 287 288 288 287 289 289 288 287 287 287 287 287 287
296 293 290 289 289 288 288 287 287 287 287 287 287 286 286 286 286 286 286 286 286 286 286 286 286 285 285 285 287 289 289 288 287 287 286 286 286 286
297 296 296 296 296 295 292 289 288 288 288 288 287 287 286 286 286 286 286 286 286 286 286 286 285 284 284 285 286 287 288 287 286 286 286 286 286 286
296 296 296 296 296 296 295 295 295 292 290 289 289 289 288 287 287 286 286 286 286 286 285 285 285 284 284 284 284 285 285 287 287 286 287 286 286 288

GFSNE_850_thetae_105.txt.gz
Theta_e
313 312 311 311 311 310 310 311 311 313 314 313 315 315 315 316 316 314 315 314 312 311 310 308 306 306 307 310 313 312 315 315 315 315 319 318 316 316
312 313 314 313 311 310 309 309 309 311 313 313 313 314 315 312 313 313 313 313 311 309 308 305 305 305 307 312 315 315 315 316 317 317 318 316 316 315
315 315 312 310 310 309 308 308 308 308 312 312 312 312 311 310 313 312 311 310 309 308 306 303 303 305 307 310 312 316 317 318 317 317 316 315 315 315
313 311 310 309 308 308 307 307 307 308 308 309 310 309 310 311 311 309 309 309 307 306 303 301 301 303 306 307 311 311 314 315 316 316 316 315 315 314
310 309 309 308 307 307 306 306 306 306 307 307 307 307 307 310 310 309 307 306 305 303 301 300 299 301 303 306 307 308 310 311 310 311 312 312 311 311
309 308 307 307 306 306 305 304 303 303 304 304 304 304 305 307 307 306 305 305 303 301 301 300 300 301 300 302 306 307 307 307 307 306 306 306 306 306
308 307 306 306 305 304 303 301 300 300 301 302 303 303 304 304 304 304 304 302 302 301 300 299 298 297 296 297 301 304 306 306 306 305 305 305 305 304
306 306 306 304 301 301 301 300 300 300 301 301 301 302 302 302 302 302 302 301 300 300 299 296 294 291 290 290 291 295 298 300 301 301 302 302 302 302
306 305 302 300 300 300 300 301 300 300 300 301 301 301 302 301 301 301 300 300 300 299 293 293 291 290 290 289 289 290 289 290 290 291 294 296 297 296
304 300 299 300 300 300 300 300 300 300 301 301 302 302 302 302 301 301 300 300 299 295 293 290 290 289 289 289 289 289 289 289 289 289 289 289 289 288
300 299 299 300 300 300 300 300 299 299 300 300 301 301 301 300 298 297 297 296 293 292 290 289 289 289 289 289 289 290 290 290 290 290 290 289 289 289
298 298 299 299 299 299 299 298 296 295 293 292 293 294 294 293 294 292 291 291 290 289 289 289 289 289 289 290 290 290 290 290 290 290 290 290 290 290
298 298 297 297 297 297 295 290 289 289 289 289 289 289 289 289 289 290 290 289 289 288 290 289 290 290 290 290 290 290 290 290 290 290 290 290 290 290
298 295 291 289 289 288 288 288 288 288 287 288 288 288 288 288 288 288 288 289 288 289 289 290 290 290 290 290 290 290 290 290 290 290 290 290 290 290
298 293 290 288 287 287 288 288 287 287 287 287 288 288 287 288 288 289 289 289 289 289 289 290 290 290 290 290 290 290 289 290 290 289 289 289 289 289
298 295 291 288 287 287 287 287 287 287 287 287 288 288 288 289 289 289 289 289 289 289 289 289 289 289 289 289 290 290 289 289 290 289 289 289 289 289
297 295 293 289 288 287 288 287 287 287 287 287 287 288 288 288 288 289 289 288 289 289 288 288 288 289 290 290 290 290 289 289 289 289 289 289 289 289
297 297 295 290 288 288 288 287 287 287 287 287 287 287 287 288 288 288 288 288 288 288 288 287 287 288 289 290 290 290 291 291 290 289 288 288 288 288
297 297 294 289 288 287 287 288 288 287 287 287 287 287 287 287 287 287 288 287 288 288 287 287 287 287 288 289 290 290 291 291 290 290 289 289 288 288
297 296 296 291 288 288 287 287 287 287 287 287 287 287 287 286 287 287 287 287 287 287 287 286 286 286 287 287 288 289 289 290 290 289 289 288 288 288
295 295 296 295 291 289 288 288 287 287 287 287 287 287 287 286 286 286 286 286 286 286 286 287 287 285 285 285 286 288 288 288 288 289 289 288 288 288
296 295 295 295 295 295 295 295 294 292 289 288 288 288 287 287 287 286 286 286 286 286 286 286 286 285 285 284 285 286 286 286 286 287 288 288 288 287
296 296 296 295 295 295 295 295 294 294 294 294 293 290 289 289 288 288 287 286 286 286 286 286 285 285 285 284 284 285 285 285 285 286 286 288 288 287

GFSNE_850_thetae_108.txt.gz
Theta_e
316 312 312 311 311 312 312 311 311 314 315 316 313 312 314 315 316 316 315 314 314 313 312 311 309 306 306 309 313 313 313 314 312 315 318 320 319 319
314 312 311 313 315 313 311 310 310 310 312 312 312 312 313 313 315 312 313 313 312 311 310 309 308 306 307 311 314 313 315 315 315 317 317 320 318 316
312 312 314 314 312 310 309 309 309 308 310 311 310 310 310 312 311 310 311 311 310 309 308 307 305 304 306 310 312 315 315 317 317 316 318 318 317 316
315 314 312 311 310 310 309 308 308 307 308 307 308 308 310 309 309 309 309 308 307 306 306 305 303 302 305 308 311 312 315 317 318 318 318 317 316 316
312 311 310 309 309 309 308 307 306 306 305 306 306 307 306 306 307 308 308 306 306 305 304 303 301 301 304 306 308 310 311 312 313 315 316 316 315 314
310 309 309 308 308 307 306 305 304 303 302 302 303 304 304 305 305 306 306 306 305 304 303 302 300 300 301 302 306 307 308 310 311 310 309 310 311 311
309 308 308 308 307 306 305 303 303 301 300 301 302 302 303 304 304 305 305 304 303 302 302 301 299 299 298 298 301 306 307 307 306 305 305 305 305 305
308 307 307 306 305 304 302 301 301 300 300 300 301 302 302 303 303 303 303 302 301 301 301 300 298 296 293 292 293 298 303 305 305 305 304 304 304 304
306 306 305 304 302 301 301 300 301 300 300 300 301 301 301 302 302 302 302 301 301 301 298 298 296 293 291 290 290 290 291 295 298 299 300 300 301 301
305 304 303 301 301 301 300 301 300 301 300 300 301 301 302 302 301 301 300 299 299 299 299 293 291 290 290 289 289 289 289 289 289 289 289 291 293 293
303 302 300 300 300 300 300 300 300 300 300 300 301 301 301 301 301 300 299 298 298 298 296 293 290 289 289 289 289 289 289 289 289 289 289 289 289 288
301 300 299 299 299 299 299 299 299 298 297 296 296 298 299 300 300 298 296 296 296 293 291 290 289 288 289 289 290 290 290 290 290 290 290 290 289 289
300 299 298 298 298 298 298 297 294 291 291 290 290 289 289 290 291 292 291 291 291 290 289 289 289 289 290 290 290 290 290 290 290 290 290 290 290 290
299 299 297 293 293 293 291 289 289 288 288 288 288 288 289 289 289 289 289 289 289 288 288 290 289 290 290 290 290 291 290 290 290 290 290 290 290 290
299 299 297 291 289 288 288 288 288 288 288 287 288 288 288 288 288 288 288 288 288 288 289 289 289 289 290 289 290 290 290 290 290 290 290 290 290 289
299 299 298 294 290 288 287 287 288 288 288 287 287 288 288 288 288 289 289 289 289 289 289 289 290 290 290 290 290 290 290 290 290 290 290 290 289 289
299 298 298 296 291 289 287 288 288 287 288 287 287 287 288 288 288 288 289 289 289 289 289 289 289 289 289 290 290 290 290 290 290 290 289 289 289 289
299 298 298 296 293 289 288 287 287 287 287 287 287 287 287 287 287 288 288 288 288 288 288 288 288 288 289 290 291 291 290 291 291 291 290 290 290 289
298 298 297 296 293 289 288 288 288 288 287 287 287 287 287 287 287 287 287 287 288 288 288 288 288 288 287 288 290 290 291 291 291 291 291 291 291 289
297 297 296 296 294 289 288 287 287 287 287 288 288 288 287 287 286 287 287 287 287 287 287 287 288 288 287 287 287 288 289 289 290 290 290 290 290 290
298 297 296 296 295 294 290 288 288 287 287 287 287 287 287 287 287 287 287 286 286 286 287 287 287 286 286 286 286 287 287 287 288 288 289 289 290 290
298 298 296 296 295 294 294 295 294 294 293 291 289 288 287 287 287 287 287 286 286 286 286 286 286 286 285 286 286 286 286 286 286 286 287 288 288 289
297 296 296 296 295 294 294 294 295 295 294 294 294 294 293 292 289 288 288 288 288 287 287 286 286 285 285 286 285 285 285 285 285 285 285 286 286 286

GFSNE_850_thetae_111.txt.gz
Theta_e
329 326 324 319 312 312 311 311 312 316 315 316 316 315 312 313 313 313 313 314 314 313 313 313 311 309 308 307 311 313 313 313 309 309 313 316 319 319
324 322 313 312 312 312 314 313 312 312 313 313 314 313 311 310 311 312 313 311 310 312 311 311 310 308 307 306 311 313 314 314 314 313 314 316 319 320
318 314 313 312 312 313 312 311 310 311 310 311 311 309 309 308 309 311 310 309 309 309 309 309 307 307 305 306 310 312 315 316 315 315 317 319 319 319
316 312 312 314 313 311 310 309 309 309 309 311 309 307 307 308 308 308 308 308 309 308 307 307 307 304 304 306 309 311 314 316 317 316 317 319 318 316
313 315 314 312 310 309 309 308 307 307 307 306 305 305 305 306 306 306 306 306 307 306 305 305 305 302 302 305 307 310 311 312 317 317 318 317 316 316
315 313 311 310 309 309 308 307 307 306 305 304 303 303 303 303 304 304 305 305 306 305 304 304 303 302 300 302 305 306 308 310 310 310 313 315 314 314
310 310 309 308 308 307 306 306 305 305 303 302 301 301 301 302 303 304 304 305 304 304 303 302 302 301 299 299 300 304 306 307 307 308 308 309 309 309
310 309 308 307 307 306 305 304 303 303 301 300 300 300 301 302 302 303 303 303 303 303 302 302 301 300 297 295 295 298 303 305 305 305 305 306 307 305
309 308 307 306 306 305 303 302 301 301 301 301 300 301 301 301 302 302 302 302 302 301 301 300 300 299 295 293 291 291 294 301 305 305 305 304 303 303
307 306 306 305 304 302 301 301 301 301 301 301 301 301 301 301 301 301 301 301 300 300 299 299 297 292 292 291 290 290 290 291 292 296 298 298 299 299
305 305 304 303 301 300 300 300 300 300 300 300 300 301 301 301 301 301 301 300 299 298 298 298 297 292 290 290 289 289 289 290 289 289 289 289 289 290
305 305 303 300 300 300 299 300 300 299 298 297 295 296 299 300 300 300 300 298 297 296 297 295 293 290 289 289 289 289 290 291 290 290 290 289 289 289
305 302 301 299 299 298 298 298 297 296 293 292 291 291 290 290 295 297 296 295 295 295 291 289 290 289 289 290 290 290 290 290 291 291 290 290 290 290
302 300 300 298 296 296 296 295 291 289 288 288 288 289 289 289 289 290 290 291 291 291 290 289 288 289 289 290 290 290 290 291 291 290 290 290 290 290
301 299 299 297 292 289 288 288 288 288 288 288 287 288 288 288 288 288 288 288 288 288 288 288 289 289 290 290 290 290 291 291 291 290 290 290 290 290
300 299 298 298 296 292 289 288 288 288 288 288 287 287 288 288 288 288 288 288 288 289 289 289 289 289 290 290 290 290 290 291 291 291 291 291 290 290
299 298 298 298 298 295 290 288 288 288 288 288 287 287 287 288 288 288 288 289 289 289 289 289 289 289 289 289 290 290 290 291 291 290 291 291 291 290
299 299 298 298 298 296 292 289 288 288 288 287 287 287 287 287 288 288 288 288 289 289 289 289 289 289 289 289 289 290 291 291 291 291 291 291 292 291
299 299 298 298 297 296 293 289 288 288 288 287 287 287 287 287 287 287 287 287 288 288 289 289 289 288 288 289 289 290 291 291 291 291 291 291 292 291
299 299 298 297 297 296 293 289 288 287 287 287 288 288 287 287 287 287 287 287 287 287 287 287 288 288 288 288 288 288 288 289 290 290 291 291 291 291
299 299 299 298 297 296 295 293 290 288 288 287 287 287 287 287 287 287 287 287 286 286 287 287 287 286 286 286 287 288 288 287 287 288 289 289 290 290
298 298 297 297 296 295 294 295 295 294 293 293 292 291 289 288 287 287 287 287 287 287 287 286 286 286 286 286 286 287 287 287 286 286 286 287 287 287
298 297 296 296 295 295 294 294 294 294 294 294 293 293 293 293 293 292 290 289 288 288 288 288 287 286 286 286 286 286 286 286 286 286 286 286 286 286

GFSNE_850_thetae_114.txt.gz
Theta_e
330 330 330 327 325 324 315 312 311 313 314 314 317 317 315 314 312 311 311 311 311 312 311 312 312 311 310 309 308 308 310 313 313 310 308 309 314 317
331 329 327 326 324 313 312 311 312 313 313 312 314 314 313 311 309 309 309 310 310 310 309 309 310 310 308 307 306 309 311 313 314 313 309 311 313 317
327 326 324 320 313 313 312 313 313 312 311 311 310 309 310 309 308 307 308 308 308 308 307 308 308 308 306 306 305 309 312 314 315 314 314 313 315 318
326 324 316 315 313 312 314 312 310 309 309 309 308 308 309 307 305 307 306 306 306 306 306 307 307 306 305 304 305 309 311 315 317 314 315 315 316 317
320 316 314 313 314 313 311 311 309 308 308 306 307 306 305 304 304 305 305 305 305 304 306 305 305 304 303 302 305 308 311 312 316 315 318 319 319 315
315 313 315 314 313 312 310 309 308 307 307 305 304 304 302 301 302 302 303 304 304 304 305 304 304 303 302 300 303 306 309 310 311 316 316 316 315 315
314 315 313 311 310 309 308 307 307 306 305 303 303 302 301 300 301 302 302 303 304 304 304 303 303 302 302 299 298 301 305 308 309 310 311 311 311 311
313 311 310 309 308 307 306 305 305 304 304 302 302 301 300 301 301 301 302 303 303 303 303 302 302 301 301 297 295 295 300 305 306 307 308 308 309 308
310 309 308 307 307 306 305 304 303 302 302 301 301 301 300 301 301 301 302 302 302 302 301 301 301 300 300 296 293 291 292 297 303 305 305 306 306 306
309 309 308 307 306 305 304 303 302 301 301 301 301 301 301 301 301 301 301 301 301 301 300 300 299 299 294 293 292 291 291 290 292 299 302 303 304 304
308 307 307 307 305 304 302 301 301 301 300 300 300 300 301 301 301 301 301 301 301 300 299 298 297 298 294 290 290 290 289 290 290 290 290 293 295 297
307 306 306 305 304 301 300 299 299 300 300 300 299 298 298 300 300 300 300 300 299 297 296 296 297 296 290 290 290 290 289 290 290 289 289 289 289 289
307 306 304 302 300 299 299 298 299 299 298 296 294 293 293 291 293 298 299 299 298 296 294 289 291 291 289 290 290 290 290 291 290 290 290 290 290 290
306 304 302 300 300 298 297 297 297 296 292 290 289 289 289 289 289 289 290 292 292 293 293 292 289 289 289 289 290 290 290 290 290 291 290 291 290 290
304 303 302 300 300 297 293 291 290 289 289 289 288 288 288 288 288 288 288 289 289 290 290 289 288 289 289 290 290 291 291 291 290 290 290 290 290 290
303 302 301 300 300 299 296 292 290 288 288 288 288 288 287 287 288 287 287 288 287 288 288 288 288 288 289 290 290 291 291 291 292 291 291 291 291 291
304 303 302 301 300 299 298 294 290 288 288 288 288 288 287 287 288 288 287 288 288 289 289 289 289 289 289 290 290 290 291 291 291 291 291 291 291 291
304 303 301 300 299 298 298 296 291 289 288 288 287 287 287 287 287 287 288 288 288 288 289 289 289 289 289 290 290 291 291 291 291 291 291 291 292 291
303 301 300 299 299 298 297 297 294 289 288 288 287 287 287 287 287 287 287 287 288 288 288 288 288 288 288 289 290 290 290 290 290 291 291 291 292 291
302 300 299 299 298 298 297 296 292 288 287 287 287 287 288 287 287 287 287 287 287 287 287 287 287 288 288 287 287 288 288 288 288 289 290 290 290 291
301 299 299 299 298 297 297 296 295 292 289 288 287 287 287 287 287 287 287 287 287 287 287 287 287 286 286 286 287 288 288 287 287 287 287 287 289 290
299 299 298 297 297 296 296 295 295 295 294 293 291 291 291 290 288 288 287 287 287 287 287 287 286 286 286 286 286 286 286 286 286 286 286 286 286 286
298 298 297 297 296 296 295 295 295 294 294 293 293 293 293 293 293 293 293 293 292 291 290 289 288 287 287 287 287 288 287 287 287 287 286 286 286 285

GFSNE_850_thetae_117.txt.gz
Theta_e
328 328 328 328 330 329 326 324 319 312 312 314 314 315 316 315 314 312 310 309 310 309 311 310 309 310 310 309 307 308 307 307 309 312 312 311 309 312
328 328 329 329 329 326 325 320 312 312 313 313 313 314 314 314 312 310 308 307 308 308 308 308 307 308 308 308 307 306 306 309 311 314 313 313 308 309
328 327 329 327 326 324 316 312 312 313 313 313 311 311 310 309 307 308 306 307 307 306 306 306 306 306 307 305 305 304 308 310 313 315 314 314 310 312
325 327 326 325 323 314 313 312 313 313 311 310 310 309 307 306 306 306 304 305 305 305 304 305 306 306 306 304 303 304 310 311 313 316 315 313 311 314
327 325 324 321 315 313 313 314 312 311 309 309 308 307 306 305 304 302 303 304 304 304 304 304 304 304 304 303 302 304 310 311 315 316 315 315 315 317
324 323 318 316 313 314 313 312 310 309 308 307 306 305 304 303 302 300 301 302 303 303 303 303 304 303 303 302 301 302 308 310 311 316 316 317 316 315
320 319 313 314 314 312 310 309 309 308 307 306 305 303 302 302 300 300 301 302 302 303 303 303 303 303 302 302 300 299 304 308 309 311 314 314 313 313
315 313 314 312 310 310 309 308 308 307 306 305 304 302 302 301 300 301 301 301 302 302 302 302 302 302 302 300 299 295 298 305 307 309 310 311 310 311
313 313 311 310 309 309 308 307 306 306 305 304 303 302 301 301 301 301 301 301 301 301 301 301 301 301 300 299 298 294 293 298 305 306 307 307 308 309
312 310 309 309 308 307 307 306 305 304 303 302 301 301 301 301 300 301 301 301 301 301 301 300 300 299 299 298 293 293 292 291 296 303 304 305 305 306
309 309 309 308 307 307 306 305 304 302 301 301 301 300 300 300 300 300 301 301 301 301 300 299 298 297 297 297 291 290 290 290 290 293 300 302 303 303
309 308 308 307 306 306 305 304 301 301 300 300 299 299 298 298 300 300 300 300 300 299 298 296 295 296 294 289 290 290 290 289 289 290 290 291 293 297
308 307 306 306 305 303 302 301 299 299 299 299 297 295 294 294 294 294 298 299 298 298 297 293 290 290 293 291 290 289 289 290 290 290 289 289 289 289
306 305 304 304 303 301 300 299 298 297 298 295 291 290 289 289 289 289 289 291 293 294 293 293 293 290 288 288 289 290 289 290 290 290 290 290 290 289
305 305 304 303 301 300 298 294 292 292 290 289 289 289 288 288 288 288 288 289 289 290 290 290 291 289 289 289 289 290 290 291 290 290 290 290 290 289
304 303 302 302 301 300 299 297 293 290 289 289 288 288 288 288 288 288 288 288 288 288 288 288 288 288 288 289 290 290 290 291 291 291 290 290 290 290
303 303 303 302 301 300 298 297 295 291 289 288 288 288 288 287 287 288 288 288 288 289 288 289 289 288 289 289 290 290 290 291 290 291 291 291 291 291
303 304 304 303 301 299 298 298 297 294 289 288 289 288 288 287 287 287 288 288 288 288 289 288 288 289 289 290 290 290 290 290 290 290 291 292 292 291
303 303 303 302 301 300 299 298 298 297 291 289 288 288 287 287 287 287 287 287 287 287 288 288 288 288 289 289 289 289 289 289 289 290 290 291 292 290
301 300 300 300 300 299 299 298 297 296 291 288 288 288 288 287 287 287 287 287 286 286 287 287 287 287 287 287 287 288 288 288 288 288 288 289 290 291
300 300 300 299 299 299 299 298 297 297 295 289 288 287 287 287 287 287 287 287 287 287 287 287 286 286 286 286 287 288 287 287 287 287 287 287 287 288
300 300 300 300 299 299 298 298 298 297 296 295 292 289 288 287 288 287 287 287 287 287 287 287 287 286 286 286 286 286 286 286 286 286 286 286 286 286
300 299 299 298 298 297 297 296 296 295 294 294 294 293 293 293 293 293 293 292 292 292 291 291 290 289 288 288 288 288 288 289 291 290 289 289 289 287